GFSNGP_sfc_30mbdewp_039.txt.gz
Dewpoint
27 27 27 29 30 31 32 32 28 28 29 31 31 30 33 35 33 31 31 36 39 40 40 41 42 40 34 31 30 27 23 20 18 17 16 16 15 14 14 14 14 13 13 13
28 29 29 30 31 33 36 35 34 34 32 34 31 31 31 32 31 30 35 40 39 38 39 39 34 30 26 23 20 19 19 18 18 17 16 16 15 14 15 15 14 14 14 15
26 28 28 30 36 36 36 36 36 30 31 31 31 33 36 38 40 39 39 41 38 37 36 29 25 22 19 18 19 19 18 17 16 16 16 15 15 16 16 14 15 14 13 12
28 28 25 31 33 34 34 37 38 35 35 35 35 38 39 39 40 39 40 38 36 33 29 23 20 18 18 20 20 18 17 16 16 16 14 14 14 15 14 14 14 13 12 12
26 25 26 29 31 31 33 35 39 38 39 38 39 41 39 42 42 42 38 36 31 27 22 20 20 21 20 19 19 18 17 18 17 14 13 13 13 13 13 13 13 12 11 11
27 26 22 27 31 34 39 31 39 39 39 40 40 36 36 41 38 36 32 28 26 24 22 24 26 24 26 26 25 24 20 14 12 11 12 13 14 14 13 12 11 11 11 11
29 28 28 30 32 34 27 28 35 39 40 41 36 35 38 40 37 36 33 33 32 31 30 31 31 29 25 21 16 14 12 11 11 12 13 14 14 13 13 12 11 11 10 10
31 29 27 33 34 32 34 35 34 37 40 36 35 36 35 34 35 32 27 25 24 22 20 20 19 17 15 13 12 11 11 11 12 13 13 16 16 15 13 12 11 10 9 8
35 32 33 35 36 36 36 35 36 36 41 40 37 34 35 34 31 29 25 22 21 20 19 19 19 17 14 12 11 12 12 12 13 14 16 17 17 17 13 11 9 8 8 9
34 34 34 35 36 36 35 34 35 36 36 38 33 32 30 29 29 27 26 22 20 18 16 14 13 12 11 11 12 12 12 13 13 13 13 13 13 14 12 10 8 9 8 9
34 34 34 35 35 35 34 32 32 32 33 33 31 30 29 27 25 24 22 21 19 17 14 12 11 10 11 12 12 12 13 13 14 13 12 12 12 11 10 11 15 13 12 12
29 35 34 34 35 35 33 31 31 31 31 31 30 28 26 24 22 21 20 19 17 14 12 10 10 11 12 13 14 13 12 12 12 12 12 11 9 8 17 14 15 17 16 16
33 35 35 35 35 34 32 31 30 29 29 27 26 25 23 22 20 20 17 16 14 13 11 11 11 12 12 13 13 13 13 13 13 12 10 9 7 6 4 7 10 9 10 13
37 36 35 35 35 33 30 29 28 26 25 24 23 22 21 20 18 16 14 13 12 12 12 11 11 12 13 13 14 14 15 14 11 10 10 9 6 5 5 5 4 5 8 11
36 36 36 35 33 31 28 28 27 26 24 23 22 20 18 16 15 13 12 12 12 11 11 13 14 14 15 15 16 15 14 11 10 10 10 7 5 6 6 5 6 7 8 9
36 36 35 34 33 30 29 28 25 24 22 21 19 18 16 14 13 13 13 13 12 12 12 13 13 14 16 17 17 17 16 14 9 6 4 4 5 7 6 7 8 9 9 9
36 35 36 35 34 31 30 28 26 23 21 19 17 15 14 14 13 13 13 13 13 13 14 14 14 15 15 13 11 9 10 10 8 4 4 6 8 8 8 9 9 10 9 9
37 37 37 36 34 31 30 27 25 22 19 18 16 15 15 15 14 13 13 13 14 14 15 15 16 16 13 11 9 8 6 5 5 5 5 8 11 10 9 10 10 10 9 10
35 35 37 35 33 32 29 26 24 20 18 17 16 16 16 15 14 13 13 13 13 13 16 19 19 14 12 12 8 7 5 5 4 5 7 10 9 9 10 10 10 10 10 10
35 36 36 34 32 30 27 24 20 18 17 17 17 16 15 14 13 13 12 12 13 18 21 22 18 14 11 11 8 7 6 5 5 6 8 10 9 10 10 10 10 10 11 11
34 34 33 32 30 28 25 21 19 18 17 17 16 15 14 14 13 15 16 15 16 18 19 17 13 10 10 9 7 7 6 6 6 7 8 9 9 10 11 12 13 12 13 13
33 33 32 30 28 25 23 21 19 18 17 17 16 15 14 14 16 15 15 15 17 19 18 15 13 12 12 9 7 7 7 7 8 8 9 10 12 14 14 14 14 14 15 15
32 32 30 28 26 24 22 20 19 18 17 16 15 15 15 16 16 15 15 18 19 19 18 16 17 15 11 6 7 7 7 8 9 10 11 12 14 15 15 14 14 15 15 15
31 29 28 26 24 21 20 19 18 17 16 15 15 15 15 15 16 18 19 18 19 20 19 19 17 13 6 6 7 7 8 9 12 14 14 14 15 15 14 14 14 14 14 15
29 26 25 24 22 21 20 20 18 16 15 15 15 15 15 16 16 17 18 19 20 18 18 18 14 10 6 7 8 8 9 11 12 13 12 13 14 15 14 14 14 14 15 15
26 25 25 24 21 20 19 18 17 16 15 15 15 15 16 17 17 18 18 17 14 12 8 7 8 6 7 7 8 8 8 10 10 11 13 14 14 14 14 13 13 13 14 15
26 24 21 20 20 19 19 17 16 16 15 14 14 15 16 16 15 12 11 8 4 1 1 2 3 6 6 6 6 8 10 11 12 13 13 13 13 13 13 13 13 14 14 14

GFSNGP_sfc_30mbdewp_042.txt.gz
Dewpoint
28 27 27 27 28 29 32 32 28 30 31 34 37 36 35 33 34 35 35 34 37 40 40 42 44 39 35 33 28 25 24 23 23 21 20 19 18 18 19 17 15 15 14 14
26 27 29 28 30 31 31 32 35 36 34 36 34 32 36 39 39 38 38 39 39 39 40 40 34 30 30 28 26 23 21 20 19 17 17 17 16 17 17 16 15 15 15 18
25 29 30 29 31 33 35 37 36 33 35 36 35 36 39 41 41 41 41 41 38 38 30 27 25 24 21 20 21 20 20 20 20 20 20 21 22 21 22 16 16 14 14 13
27 29 24 31 35 34 33 33 38 38 38 39 39 40 40 41 40 42 40 39 37 31 25 23 21 19 19 19 20 19 20 18 18 18 18 18 18 17 16 16 15 13 13 12
27 25 24 29 32 32 31 32 38 38 38 41 41 41 38 39 34 34 35 32 27 23 20 18 19 21 20 20 19 21 20 21 21 19 18 19 20 16 15 14 13 12 12 12
30 24 21 26 31 36 38 32 36 39 39 41 36 35 35 37 31 27 24 22 21 20 21 22 21 22 24 24 26 28 28 29 30 30 29 22 15 14 14 14 12 12 11 11
29 27 27 30 34 36 29 31 36 38 40 36 35 38 38 37 35 34 31 27 28 30 32 33 34 33 32 32 32 32 32 31 26 19 15 15 15 15 13 12 12 11 10 10
28 27 24 34 35 33 35 36 35 38 41 37 36 35 36 35 35 36 36 36 35 35 36 37 36 34 32 31 31 26 17 14 15 15 16 17 16 14 13 12 11 9 9 9
32 30 33 35 35 36 35 35 36 36 42 39 37 36 33 32 29 22 20 22 25 27 26 22 19 15 12 12 14 14 14 15 17 18 19 19 17 16 13 11 9 9 9 10
34 35 35 35 36 35 34 33 34 36 41 38 35 34 34 32 32 30 29 27 24 21 18 15 14 13 13 13 14 14 14 14 14 14 13 13 14 14 11 10 10 10 11 12
33 34 35 35 35 35 33 32 32 33 36 34 32 30 28 26 25 23 22 19 16 14 12 11 12 12 13 14 14 14 14 15 14 14 13 12 12 11 11 17 15 15 16 16
30 35 35 35 35 35 32 31 32 32 32 31 29 27 25 23 23 21 18 16 14 12 11 11 12 14 15 15 14 13 13 13 14 13 12 10 9 10 17 14 14 16 15 14
34 36 36 35 34 33 31 31 31 30 30 28 27 25 23 21 20 19 16 14 13 12 12 13 13 13 14 15 14 14 13 14 13 11 10 9 7 5 5 8 9 8 9 12
37 36 36 35 34 31 30 29 28 27 26 25 23 22 21 20 18 15 14 13 13 13 13 13 13 14 15 16 16 16 16 15 11 12 10 8 6 6 7 6 5 7 10 12
37 36 36 34 31 29 28 28 27 26 24 22 22 19 17 15 14 13 13 12 13 14 15 15 15 16 17 17 16 14 11 10 10 9 8 7 6 7 7 7 8 9 10 11
36 36 35 33 30 28 29 28 25 23 22 20 19 17 15 14 13 13 13 13 13 14 14 15 16 17 18 18 17 15 14 12 8 5 5 6 8 9 8 9 10 10 10 10
36 35 35 33 31 30 29 27 24 22 20 18 15 15 14 14 15 14 14 15 15 15 16 16 16 15 13 11 11 12 10 8 8 6 6 7 10 10 9 10 10 11 10 10
37 37 37 35 32 31 29 26 23 21 18 16 15 15 15 14 14 14 14 15 15 16 16 16 15 13 11 10 9 8 7 6 6 6 7 9 12 10 10 11 11 11 10 11
37 36 37 36 34 31 27 24 22 19 17 16 16 16 15 14 14 14 15 15 15 15 18 18 16 13 12 11 9 7 6 5 5 6 8 11 9 10 11 10 11 11 11 11
35 36 36 35 33 30 26 23 19 18 17 17 16 15 14 14 14 13 13 14 16 19 21 17 13 11 11 11 10 8 6 6 6 7 9 10 9 11 10 11 12 12 12 13
34 35 34 32 30 28 24 20 19 18 18 17 16 15 14 14 15 16 16 17 21 22 19 15 11 11 11 10 8 8 7 7 7 8 9 9 10 12 13 14 14 14 14 14
34 33 32 30 27 24 21 19 18 18 17 16 16 14 14 16 16 16 16 17 19 21 16 13 11 13 11 10 8 7 7 8 8 9 10 11 13 14 15 15 14 15 15 15
33 33 30 28 25 22 20 19 18 18 17 16 15 15 15 16 15 15 15 20 20 19 16 16 16 14 10 8 8 7 7 8 9 11 13 13 14 14 14 14 14 14 14 14
31 30 29 27 23 21 19 19 18 17 17 16 16 17 16 16 17 18 20 21 20 20 18 18 15 11 8 7 8 8 8 9 12 13 14 14 13 14 14 14 14 14 14 14
28 27 25 23 22 21 20 19 18 17 16 16 16 16 16 17 18 19 20 21 22 20 19 18 14 9 7 7 8 8 8 10 10 12 12 12 13 13 14 14 13 13 14 14
27 25 25 24 22 21 19 18 16 16 16 16 16 16 17 18 19 19 20 20 19 19 16 14 9 6 7 7 9 8 8 10 11 11 13 13 13 13 13 13 13 13 13 14
27 25 22 21 21 20 19 18 17 16 17 16 17 17 18 18 19 18 16 13 8 5 5 6 6 6 6 7 6 7 10 11 12 13 13 12 12 12 12 13 13 13 13 13

GFSNGP_sfc_30mbdewp_045.txt.gz
Dewpoint
28 29 28 27 27 28 27 28 27 25 27 31 34 38 38 38 39 39 40 40 37 38 40 42 39 35 31 30 29 29 29 27 27 26 25 23 21 21 21 22 24 26 27 27
25 26 27 27 29 29 29 30 32 33 33 36 38 39 38 41 41 39 39 40 39 40 39 34 33 30 26 28 27 27 27 24 23 23 21 20 20 20 20 20 19 20 20 19
22 27 29 28 30 30 30 33 34 33 35 39 39 40 38 38 37 39 41 41 39 31 27 26 25 25 25 22 22 22 20 19 19 19 21 23 25 24 25 25 25 27 27 23
24 27 22 31 31 33 32 34 36 36 37 38 40 39 38 33 30 31 41 37 28 24 22 20 20 21 21 21 21 20 21 21 22 24 26 26 26 27 27 26 24 21 16 13
26 25 25 30 32 32 32 31 37 36 37 39 39 41 37 32 27 25 23 21 20 19 20 21 21 21 21 21 23 25 25 28 29 29 29 29 29 28 29 28 22 14 13 12
29 24 20 30 31 35 35 29 35 37 39 39 37 35 34 34 29 23 21 22 22 22 22 21 24 25 26 27 28 28 29 31 30 30 31 30 28 22 18 14 14 13 12 11
28 27 27 29 31 38 29 29 35 38 41 36 36 36 36 35 33 31 30 30 29 31 30 30 31 30 31 31 31 33 33 34 34 33 32 30 25 18 14 13 12 11 10 10
31 27 23 30 34 33 34 36 35 39 39 36 37 36 34 35 35 34 33 33 33 33 33 33 35 33 33 32 33 33 32 32 30 26 22 19 16 15 13 12 10 9 9 11
29 27 29 35 35 36 35 35 35 37 40 38 35 33 29 28 27 34 34 34 34 32 32 32 34 34 32 32 31 27 21 19 18 18 18 17 15 14 11 9 9 9 10 11
34 35 36 35 35 34 33 33 34 39 39 37 37 33 31 28 27 26 26 25 25 23 23 19 14 15 18 17 17 16 16 16 16 16 15 15 14 13 11 11 9 11 13 13
33 34 35 35 35 34 32 32 33 36 39 37 35 34 32 30 28 27 23 19 16 14 13 13 13 14 15 15 14 14 15 15 15 15 13 11 11 12 15 15 14 13 16 15
33 34 35 35 35 34 32 32 32 33 32 33 30 28 26 24 23 19 17 15 14 13 13 13 14 15 15 16 15 14 13 13 13 12 10 9 8 9 17 16 16 15 14 13
34 36 36 35 34 32 31 31 32 31 30 28 26 24 22 19 18 18 15 14 13 13 14 15 15 15 15 15 15 15 14 14 14 11 8 6 6 6 5 8 12 12 13 14
37 36 35 35 34 31 30 30 29 27 26 25 23 22 21 20 18 15 14 14 14 15 15 15 15 15 16 16 15 15 16 15 11 9 7 6 6 7 7 7 7 9 12 14
37 37 36 34 30 29 28 26 25 24 23 22 22 20 17 15 14 14 14 14 14 15 16 16 16 16 16 15 12 11 10 9 8 8 9 8 8 9 8 9 10 10 11 11
36 34 33 32 29 28 28 27 25 23 22 20 17 16 15 14 14 14 15 15 14 15 16 16 17 18 17 15 14 13 13 11 8 5 6 8 10 10 9 10 11 11 11 10
36 35 34 32 29 28 29 27 24 22 20 17 15 15 14 14 14 15 15 16 16 16 17 17 15 14 15 14 11 8 8 10 10 6 7 10 12 10 10 11 11 11 11 11
37 37 37 35 31 29 29 25 23 21 17 15 15 15 15 14 14 15 15 16 16 16 16 14 12 11 10 9 8 7 6 6 6 7 8 12 11 10 11 11 11 11 11 11
37 37 37 36 32 31 27 24 22 18 16 16 15 15 15 15 15 15 15 15 15 14 16 16 16 11 10 12 9 7 6 5 6 8 9 11 9 11 11 11 12 12 12 13
35 36 37 37 36 34 26 22 18 17 17 16 16 15 15 15 15 15 15 14 16 18 18 15 11 11 12 13 11 7 6 6 7 8 11 9 10 11 12 13 14 14 14 14
34 35 35 36 35 27 23 19 18 17 17 16 15 15 15 15 15 16 15 15 19 20 16 14 10 9 11 12 8 7 7 7 8 8 9 10 12 13 14 15 14 14 14 15
33 33 32 30 27 23 20 19 19 18 17 16 16 15 15 15 16 16 18 18 21 20 15 11 10 12 12 11 8 7 7 8 8 9 11 12 12 13 14 14 14 14 15 14
32 32 31 28 25 22 20 19 18 18 17 16 15 15 15 16 16 15 16 21 21 18 12 12 16 14 13 8 7 7 7 8 9 12 13 13 13 13 13 13 14 14 13 13
30 30 29 26 22 20 19 18 18 18 17 16 16 16 16 16 16 17 20 22 20 18 15 17 16 12 10 7 7 7 8 9 12 11 12 13 11 12 13 13 13 13 13 14
27 26 25 23 21 20 19 19 18 17 16 17 17 17 17 17 17 20 21 21 22 20 19 17 14 12 7 7 8 7 8 9 9 11 11 11 12 12 12 12 12 13 14 13
28 26 25 23 22 20 19 18 17 17 17 16 17 17 19 19 20 20 21 22 22 20 18 15 10 8 6 6 8 7 8 9 11 11 13 13 12 11 11 11 12 12 12 12
27 26 24 23 22 20 19 18 17 17 17 16 17 19 20 20 20 20 21 20 19 15 12 9 10 7 6 6 6 6 9 11 12 13 13 11 11 10 11 11 12 12 12 12

GFSNGP_sfc_30mbdewp_048.txt.gz
Dewpoint
28 28 29 27 27 27 26 26 25 24 26 28 31 34 37 40 41 42 41 41 40 40 39 41 36 32 32 34 35 35 33 31 28 25 25 24 23 24 25 25 26 27 28 29
25 26 27 26 27 28 28 28 28 28 29 32 34 39 39 38 37 35 36 41 42 34 33 31 28 29 31 33 34 34 32 30 30 26 23 24 24 28 28 28 28 29 29 27
20 26 28 25 28 28 29 30 30 29 32 36 37 40 37 34 31 31 32 39 34 26 23 24 26 28 28 29 28 28 27 27 24 24 24 25 27 28 28 29 30 30 31 31
23 26 20 27 31 31 30 30 33 35 37 36 39 39 35 30 27 26 24 24 22 21 21 23 24 25 28 31 30 30 29 29 29 30 31 31 31 31 31 32 32 32 30 28
24 24 25 30 32 31 32 32 36 35 35 40 38 40 36 32 24 23 23 21 22 22 22 22 21 23 24 26 28 29 30 30 31 32 32 31 31 32 32 31 30 26 23 21
29 23 20 27 29 34 34 29 36 36 36 40 37 36 35 33 26 25 23 23 23 22 23 24 25 26 27 28 29 30 32 33 33 33 32 32 32 31 31 30 26 20 15 13
27 26 27 28 30 38 29 29 35 37 39 37 37 37 36 33 32 31 31 31 31 30 30 30 29 30 31 32 32 32 32 32 33 33 32 32 31 29 25 21 14 11 10 11
29 26 22 29 34 33 34 36 35 38 38 38 37 35 35 35 33 32 33 32 33 32 32 34 34 33 32 30 32 32 33 32 32 32 32 30 25 20 14 11 10 9 11 12
31 27 29 32 35 36 35 35 35 38 39 37 36 32 30 32 34 33 34 33 33 32 31 32 34 33 31 31 32 32 32 31 30 26 21 17 14 12 10 10 10 10 11 11
32 33 33 33 35 35 34 33 34 38 39 36 35 30 28 28 29 32 34 34 34 34 29 29 30 32 32 31 31 27 19 18 18 16 15 14 13 13 10 7 8 10 12 12
34 34 35 35 35 35 33 32 33 39 39 38 35 31 28 27 26 25 24 21 18 15 15 15 18 18 18 17 16 15 16 16 16 14 11 11 13 13 13 14 12 11 14 14
33 34 34 35 35 35 32 32 33 37 37 37 35 33 31 28 26 21 17 15 15 14 14 14 15 15 16 16 15 14 14 13 13 10 10 10 12 14 18 16 15 16 15 16
35 36 36 36 35 33 32 32 33 33 34 32 30 29 26 24 20 19 16 15 15 14 15 15 15 15 16 15 15 14 14 13 13 9 6 5 5 5 4 8 14 15 16 16
38 36 35 35 34 32 31 31 31 29 29 26 24 22 21 23 20 16 15 15 16 16 16 15 15 15 16 15 14 13 14 14 9 7 6 6 7 7 7 8 8 10 13 15
36 36 36 34 31 30 29 27 26 25 24 23 22 21 22 20 15 15 15 15 15 16 16 16 15 16 16 15 14 14 12 8 8 8 8 9 9 9 9 10 10 10 11 11
37 34 32 32 30 28 27 26 25 23 22 20 19 18 17 16 15 15 15 16 15 15 16 16 15 16 14 13 11 9 9 10 8 7 9 10 10 9 10 10 11 11 11 10
36 35 34 32 30 28 27 27 25 23 20 18 17 16 15 15 15 16 16 16 17 17 17 16 16 16 15 13 12 12 12 12 10 7 10 12 11 10 11 11 11 11 11 12
36 36 37 36 33 29 29 27 25 22 20 17 16 15 15 15 15 16 16 16 16 16 16 15 15 14 11 9 8 7 6 6 7 7 11 12 10 11 11 11 11 12 12 12
36 36 37 37 35 30 29 26 23 20 17 17 16 15 15 15 16 16 16 15 15 14 13 13 16 11 9 10 8 7 6 6 7 8 11 11 10 11 11 13 13 13 13 13
34 36 37 36 32 30 27 25 19 18 17 16 16 15 15 15 16 15 15 14 14 14 16 17 13 11 13 14 10 6 6 6 7 8 12 9 11 12 13 14 15 14 14 14
33 34 34 39 38 36 31 26 23 18 16 17 16 15 15 16 16 15 14 13 17 19 16 15 11 11 13 13 8 7 6 7 7 8 9 10 12 13 13 14 14 14 14 14
31 32 32 31 32 28 24 21 19 17 17 16 16 16 15 15 15 15 16 15 20 20 16 10 10 13 13 11 7 6 7 8 8 9 11 12 13 13 13 13 13 14 14 13
30 30 30 29 26 24 21 20 19 18 17 17 16 16 15 16 16 16 15 20 21 20 12 10 13 16 15 7 7 6 7 8 9 11 12 12 13 11 12 12 13 13 12 12
29 27 27 27 23 21 20 19 19 18 18 17 16 16 16 16 16 17 20 22 22 19 12 13 17 17 12 7 7 6 7 8 11 10 11 14 11 11 12 12 12 12 12 13
27 28 26 24 23 22 20 20 19 18 17 17 17 17 17 17 16 19 22 22 22 18 16 19 17 16 7 7 7 6 7 8 8 11 11 11 12 12 11 11 11 11 13 13
27 27 27 25 23 22 20 19 18 17 17 17 17 17 18 19 20 21 21 22 21 19 18 17 14 11 6 7 7 7 7 9 11 10 12 12 12 11 10 10 11 11 11 11
27 28 25 24 23 22 20 19 18 17 18 17 17 18 19 20 21 20 22 22 21 19 16 13 12 8 6 6 7 6 8 10 12 12 12 11 10 10 10 10 11 11 11 12

GFSNGP_sfc_30mbdewp_051.txt.gz
Dewpoint
27 27 28 28 26 28 26 25 23 23 24 25 26 29 33 39 38 35 34 33 35 40 38 35 31 33 36 37 36 35 33 32 31 29 28 26 25 25 26 27 27 28 28 29
24 26 27 26 27 28 27 27 27 27 27 28 30 36 40 37 32 32 31 31 37 28 27 27 28 29 31 32 32 32 31 28 27 26 27 28 28 30 30 30 30 30 30 31
20 25 28 24 27 27 27 28 27 26 28 34 36 39 38 33 29 28 26 24 22 22 24 26 29 30 29 28 30 31 31 28 29 31 30 30 31 31 31 31 32 32 32 33
24 25 19 24 30 30 28 28 30 30 31 34 38 39 34 31 25 24 24 21 21 22 23 25 29 32 33 33 34 33 32 33 34 32 32 32 32 32 32 32 32 32 32 32
23 23 24 29 33 32 31 31 34 33 35 36 39 38 37 33 24 23 24 25 24 22 22 23 24 27 29 31 32 33 33 34 33 33 32 32 32 32 32 32 32 31 31 31
28 22 19 26 29 35 34 29 35 36 35 38 38 37 37 32 29 27 28 26 27 27 28 27 27 28 29 30 32 32 33 33 33 33 33 32 32 31 32 32 30 29 25 22
26 25 25 28 30 37 28 30 35 36 36 39 37 38 36 33 31 32 32 32 33 33 33 33 32 33 32 32 31 32 33 34 33 32 32 31 31 31 30 28 18 12 11 13
27 26 22 29 35 33 34 36 36 36 38 38 37 35 35 35 32 33 32 32 33 33 33 34 33 33 31 30 32 33 32 32 32 32 33 32 30 24 17 12 10 12 12 12
28 27 28 30 33 36 36 35 34 36 39 38 36 34 35 34 33 33 33 32 32 32 32 34 34 33 31 32 33 33 32 31 31 29 24 18 13 11 10 10 10 11 11 10
33 33 33 33 34 35 34 33 33 35 39 38 36 31 31 31 34 34 34 34 33 32 32 32 33 33 33 33 32 28 22 20 17 15 14 13 13 11 7 7 8 10 10 12
34 35 35 35 36 35 34 33 32 38 39 37 34 31 30 28 28 30 29 31 22 22 24 27 28 28 26 21 18 17 17 17 15 12 11 12 13 12 14 13 11 12 13 14
33 35 34 34 36 35 34 32 32 37 38 38 34 30 29 27 26 24 19 18 19 19 20 18 18 17 16 17 16 15 14 13 12 11 13 14 16 17 18 18 17 17 17 17
35 36 36 36 36 34 33 32 33 35 38 37 35 32 28 28 23 21 17 17 16 16 16 16 16 16 16 16 15 14 13 13 12 7 5 5 5 5 3 9 15 17 18 17
37 37 36 35 35 33 32 32 33 32 32 32 31 29 26 26 26 18 17 16 17 17 16 16 15 15 16 16 14 13 14 13 7 6 6 6 7 7 7 8 8 9 13 15
35 36 34 34 32 31 30 29 29 28 26 25 24 24 25 27 24 17 16 16 16 16 16 16 15 15 16 15 15 14 10 7 7 7 8 9 9 9 9 10 10 10 11 11
35 36 34 32 31 29 28 27 27 25 24 22 22 23 25 24 18 16 16 16 15 15 16 15 15 15 15 14 12 8 10 12 9 9 10 10 9 9 10 10 10 11 11 11
33 33 35 34 32 30 28 27 26 25 23 21 20 19 18 17 16 16 16 17 17 17 17 15 15 15 14 11 9 10 12 12 9 8 10 11 10 9 10 11 10 11 11 12
34 35 35 36 36 34 30 28 26 24 21 19 18 17 16 16 16 16 17 17 17 17 16 16 16 14 12 12 11 11 11 9 7 8 11 12 9 11 11 11 12 12 12 13
33 35 36 37 37 36 31 29 26 23 21 21 19 17 16 16 16 17 17 16 15 14 15 16 18 13 9 10 9 7 6 6 7 9 12 12 10 11 11 13 14 13 13 13
33 34 35 35 33 31 29 26 22 21 20 20 18 16 16 16 16 16 16 15 15 15 15 15 16 10 9 14 12 6 5 6 6 8 10 9 10 12 13 14 14 13 13 14
32 33 34 37 38 34 29 27 26 20 18 17 17 16 16 16 16 15 15 14 15 17 14 19 11 11 13 14 12 6 6 6 7 7 8 9 11 12 13 13 13 13 13 14
30 29 30 31 32 32 32 30 28 23 17 17 17 16 16 16 16 15 15 14 17 20 18 15 13 13 13 15 7 6 6 7 7 8 10 11 12 13 13 12 12 13 14 13
28 29 28 28 26 25 28 26 23 19 18 21 18 16 16 16 16 15 14 17 18 21 15 11 12 16 16 11 6 6 6 7 7 9 11 12 13 12 11 11 12 13 12 11
27 27 28 26 25 22 22 20 22 24 22 18 18 17 16 16 16 17 19 21 20 21 13 10 14 17 18 7 6 6 6 7 8 11 11 14 12 10 11 11 11 11 11 11
26 27 27 27 25 23 22 20 20 19 18 17 17 17 17 17 17 17 21 22 22 21 14 15 17 19 14 6 6 5 6 7 8 9 11 11 10 11 11 11 10 10 11 12
25 26 27 26 25 24 22 20 19 19 18 17 17 17 17 18 19 20 21 22 23 20 14 18 19 18 10 6 6 6 6 8 11 11 11 11 12 11 11 10 10 10 11 11
24 25 26 26 26 26 23 21 19 18 19 17 17 18 18 19 20 21 22 22 22 19 16 18 18 15 6 6 8 6 6 8 11 11 12 12 11 10 10 10 10 10 11 11

GFSNGP_sfc_30mbdewp_054.txt.gz
Dewpoint
27 26 27 27 26 27 25 25 21 20 23 23 25 27 29 38 35 32 31 27 28 27 28 28 30 32 33 34 34 32 30 29 29 30 30 29 28 28 28 29 29 29 29 30
24 26 27 27 28 27 27 27 26 26 26 28 28 32 39 37 33 29 28 24 22 23 25 28 29 29 30 31 30 29 30 28 29 30 31 31 31 30 30 30 30 31 32 33
21 25 27 23 27 27 27 28 27 25 26 28 32 37 39 35 31 26 25 22 21 23 25 28 31 32 31 31 31 31 31 31 32 32 32 32 32 32 32 32 33 33 34 35
24 24 17 21 28 29 27 26 28 28 28 30 34 39 35 33 27 23 25 25 22 22 23 25 30 32 33 34 34 34 34 34 34 34 33 33 33 33 33 33 33 33 32 32
22 22 23 28 32 30 29 31 31 29 30 34 39 38 37 33 25 24 24 25 24 25 24 27 27 30 30 31 32 33 33 33 34 34 33 33 32 32 32 32 31 31 31 32
27 21 19 24 29 35 33 29 33 35 35 36 38 35 38 32 30 28 29 28 28 29 30 30 31 32 32 33 33 32 33 33 34 33 32 31 31 31 31 31 31 31 30 30
26 23 24 27 29 35 30 29 35 36 36 38 38 38 35 32 31 32 32 32 33 33 33 33 33 33 32 32 31 33 33 33 33 32 31 32 31 31 31 28 21 14 15 16
27 24 21 30 34 34 34 36 36 35 36 38 38 35 35 33 32 32 32 32 33 33 33 34 34 33 31 31 33 33 33 32 32 32 32 32 30 24 13 12 12 12 12 12
26 23 27 31 33 35 36 35 34 35 38 39 37 35 35 34 33 32 31 32 32 33 33 34 34 33 31 32 33 33 32 31 30 23 17 14 12 11 10 11 11 11 10 10
32 33 33 34 35 35 35 35 34 34 37 38 37 34 34 34 33 33 32 32 33 33 33 32 34 33 33 33 32 28 22 17 15 13 12 11 10 9 7 8 9 9 10 12
32 33 35 35 36 36 35 33 33 35 38 38 36 33 32 33 33 34 33 32 27 30 31 32 32 32 29 23 20 18 17 15 12 12 12 13 15 15 14 11 11 11 13 14
33 35 34 34 35 36 35 34 33 34 38 37 35 32 31 30 30 28 28 22 24 26 25 25 25 23 19 18 17 15 13 11 13 13 15 17 17 18 20 19 19 20 20 18
36 37 37 37 36 35 34 34 32 34 37 38 35 31 29 29 27 25 21 22 23 25 23 20 17 16 16 16 15 14 13 11 12 6 5 5 6 5 3 10 16 17 18 17
36 35 36 35 35 34 33 32 33 33 35 37 36 31 29 27 29 24 21 21 19 20 19 17 16 15 16 16 14 13 13 12 5 5 6 7 7 7 8 7 7 9 13 15
34 35 35 35 32 32 31 30 30 30 29 30 31 30 27 27 27 25 19 18 18 17 16 16 15 15 16 15 14 14 10 7 6 7 8 9 8 8 9 10 10 10 10 11
33 34 35 35 33 31 29 28 29 28 26 25 26 26 27 28 28 21 17 17 16 16 16 15 15 15 15 15 12 8 9 12 11 10 9 9 8 8 9 10 10 10 10 11
31 32 33 34 35 33 31 29 28 28 25 23 23 25 25 23 21 20 18 17 17 17 17 16 15 15 15 12 8 10 12 12 11 8 9 10 9 9 10 10 10 11 11 12
33 33 33 34 35 35 35 32 28 26 25 23 21 20 20 21 21 18 17 18 18 17 17 16 15 15 12 11 11 11 10 9 6 7 11 11 9 10 10 10 11 12 12 13
33 34 34 35 36 36 37 34 29 26 23 21 19 19 18 20 21 18 18 17 16 15 16 17 19 14 11 12 11 10 7 5 6 9 11 12 11 10 10 12 13 14 13 13
33 33 34 34 37 31 31 29 26 23 22 20 20 20 21 21 18 17 17 16 16 16 16 18 17 11 9 15 11 6 5 5 5 7 9 8 8 11 12 13 14 13 13 13
30 30 31 33 35 37 29 25 23 23 22 22 23 23 21 17 17 17 16 15 15 18 16 20 13 10 10 16 11 5 5 5 6 6 8 10 9 12 12 13 13 13 13 13
28 29 28 27 29 32 32 33 31 28 22 19 18 18 17 17 16 16 16 15 16 20 18 17 13 12 12 17 9 5 5 5 6 7 7 9 10 11 12 12 11 12 12 13
27 27 28 27 25 24 26 31 30 28 24 19 18 17 17 17 16 15 15 16 17 21 17 15 14 17 17 15 7 5 5 6 6 7 8 10 11 12 12 11 11 12 12 11
25 26 27 27 26 24 23 22 22 25 26 25 25 24 20 16 16 16 17 19 19 23 15 14 17 18 18 12 6 5 5 5 6 7 10 13 12 12 11 10 11 11 10 10
24 25 27 27 26 25 24 22 20 20 19 19 19 19 18 18 17 17 20 21 22 23 16 17 18 19 17 11 5 5 5 6 6 9 10 10 11 10 11 11 11 10 10 11
22 24 25 26 26 25 25 22 21 20 19 18 18 18 18 18 18 19 20 22 22 23 16 16 18 19 15 10 6 5 5 7 10 12 12 12 11 11 11 11 10 10 10 10
19 20 21 22 24 24 24 27 25 22 20 19 18 18 18 18 19 20 21 22 22 22 16 16 20 19 15 9 7 6 6 7 9 10 10 11 12 12 10 10 10 10 10 10

GFSNGP_sfc_30mbdewp_057.txt.gz
Dewpoint
26 26 27 26 27 26 24 24 21 18 20 21 24 26 28 37 35 32 29 25 23 25 27 29 29 30 31 31 30 30 30 31 31 32 33 33 32 33 33 33 33 32 31 32
24 26 27 27 28 27 26 26 25 25 25 27 28 29 37 37 33 29 27 24 22 24 26 29 31 31 32 31 32 31 32 31 32 32 33 34 34 34 33 33 33 34 34 35
21 25 26 24 26 27 27 28 27 25 25 28 29 32 39 36 32 27 25 25 23 23 25 30 32 33 34 34 34 34 34 34 33 33 32 33 33 34 34 34 35 36 36 36
24 23 17 20 28 28 27 27 29 28 28 29 29 38 35 34 28 24 25 26 22 23 24 27 31 32 33 34 34 34 34 34 34 34 33 33 33 33 33 33 33 33 32 33
22 20 21 28 30 29 28 31 29 28 28 29 37 38 37 32 26 24 24 24 25 26 27 28 29 31 32 34 35 34 33 33 33 33 33 32 32 32 32 32 31 31 32 32
25 21 17 23 29 35 33 30 32 33 33 35 38 34 36 31 29 29 29 29 30 30 31 31 32 32 33 33 33 33 33 33 34 33 32 31 31 31 31 31 30 30 30 31
24 22 21 25 27 33 31 30 34 36 36 36 38 37 35 32 31 32 32 32 33 33 32 33 33 33 32 32 31 32 32 33 32 32 32 32 31 31 29 24 21 21 20 18
25 22 17 29 36 34 35 35 35 35 36 37 38 35 33 32 32 32 31 32 33 33 33 34 34 34 32 31 33 33 33 32 32 32 32 28 19 14 13 13 13 12 11 12
24 22 25 30 34 34 35 34 34 34 35 39 37 35 35 33 33 32 31 31 32 33 33 34 34 33 32 32 33 33 32 27 18 15 13 13 12 12 11 12 11 9 9 12
31 32 31 32 35 35 35 35 35 35 36 38 37 36 35 33 33 32 32 31 32 31 33 32 34 34 34 34 32 24 17 14 13 12 10 9 9 9 8 8 8 9 11 13
31 32 33 35 37 36 36 35 33 34 36 37 37 35 35 33 33 33 33 32 33 33 33 33 34 33 29 25 20 16 15 14 13 11 13 15 15 13 11 10 11 12 14 14
33 34 34 35 35 37 36 35 34 33 36 38 37 34 34 34 34 33 33 26 30 31 32 31 30 27 22 20 17 14 11 11 13 15 17 18 19 20 21 21 21 21 20 18
35 36 36 37 37 35 34 34 34 33 35 37 35 33 32 32 32 32 28 26 29 29 28 27 25 20 18 18 16 13 12 13 13 10 11 13 9 8 8 14 18 18 18 17
35 35 35 35 35 35 33 32 33 33 34 37 36 31 30 30 30 27 26 25 27 27 26 24 19 16 17 17 15 13 12 12 5 5 6 6 6 7 7 7 6 8 12 15
33 34 34 35 35 33 31 31 31 31 30 32 35 31 29 29 30 27 25 23 23 24 23 18 16 15 17 16 14 14 12 7 5 7 8 9 8 9 9 9 9 9 10 11
32 33 34 34 35 34 31 30 29 30 28 29 31 31 29 29 29 28 24 20 21 22 20 17 15 16 16 15 14 11 8 9 9 12 11 8 8 8 9 9 9 10 10 10
31 31 32 33 33 34 35 33 30 29 28 26 27 27 28 29 28 26 21 19 19 19 19 16 15 16 16 14 11 9 12 15 12 8 8 8 8 8 9 10 9 10 11 12
32 33 33 33 34 34 35 36 34 30 28 26 24 25 26 25 26 23 20 21 18 18 18 17 16 16 14 11 10 12 12 12 7 7 10 10 8 9 10 10 11 11 12 13
34 34 34 34 35 34 34 36 36 31 27 24 23 22 23 23 25 26 24 22 20 17 17 17 19 16 12 12 12 11 9 6 6 8 9 12 12 10 10 10 12 13 13 12
32 32 32 33 35 35 28 28 29 27 24 22 21 20 20 22 24 25 25 24 18 17 18 18 20 13 12 16 15 9 5 4 4 6 9 8 7 8 10 13 14 13 12 12
29 29 29 29 31 34 34 27 23 23 23 21 21 21 21 24 25 23 21 18 17 19 17 21 16 12 12 18 13 5 4 4 4 5 6 11 9 9 11 11 12 12 12 12
27 27 28 28 26 25 29 33 32 29 25 22 22 23 23 22 19 18 17 17 17 21 19 21 15 12 12 19 6 4 4 4 4 5 5 6 7 8 10 12 12 12 12 12
25 27 27 27 26 24 23 23 27 31 31 29 25 20 19 18 18 17 16 17 17 22 20 18 16 17 17 16 7 5 4 4 4 5 5 7 8 10 11 12 12 11 12 11
24 25 26 27 26 25 25 23 22 21 25 26 27 25 23 23 21 19 18 19 19 23 18 17 19 20 19 13 8 5 4 4 5 6 7 11 10 11 11 12 11 11 11 11
22 23 25 26 25 25 25 24 22 21 20 19 20 22 25 23 23 19 21 22 22 24 19 19 21 21 19 13 8 5 4 5 6 6 7 9 10 10 11 11 11 11 11 11
19 20 21 24 24 24 22 25 26 24 22 20 19 18 18 19 18 19 19 21 22 24 19 18 21 21 17 14 10 5 5 6 9 12 10 10 10 11 11 11 11 11 10 10
15 18 17 16 19 19 20 23 25 25 25 22 20 19 19 18 19 20 20 21 22 24 19 16 21 21 17 15 11 6 6 7 10 10 11 12 11 11 11 12 10 10 10 10

GFSNGP_sfc_30mbdewp_060.txt.gz
Dewpoint
26 26 27 27 28 26 25 26 23 21 20 19 22 26 28 35 37 34 31 28 28 29 30 32 32 33 33 33 32 33 33 33 33 34 34 34 34 34 35 35 34 34 33 32
25 26 27 27 27 28 27 26 26 25 25 26 27 28 33 38 36 32 28 26 26 26 29 32 34 35 35 34 33 33 33 32 32 33 33 34 36 35 35 36 37 36 37 37
23 26 26 24 27 27 28 28 27 26 26 27 27 29 36 38 35 30 27 27 26 26 27 31 33 34 34 34 35 35 34 33 33 33 33 34 34 34 34 35 35 35 36 35
24 24 19 23 29 28 27 27 28 28 27 28 29 35 37 36 33 28 27 27 25 25 27 29 31 32 33 35 35 35 35 34 34 34 34 34 34 33 33 33 32 32 32 32
23 21 21 25 29 28 29 31 29 28 28 30 32 39 38 34 29 27 26 26 26 27 28 29 30 32 33 34 34 35 34 34 34 34 33 33 32 31 31 31 31 31 32 32
25 22 16 26 31 34 31 30 34 31 32 34 38 36 38 34 29 29 28 28 29 29 30 31 31 32 33 33 33 33 33 33 34 33 32 31 31 31 31 31 30 31 31 32
24 23 21 23 27 30 31 31 35 36 36 36 36 39 37 33 32 31 31 31 31 31 31 32 32 34 33 33 32 33 33 33 33 33 32 32 32 31 28 24 22 22 21 22
24 23 19 27 35 34 36 36 35 35 36 36 39 35 34 33 32 32 31 31 32 31 32 33 35 34 33 32 33 34 34 33 33 33 29 24 19 16 14 13 12 12 12 12
25 22 25 30 33 33 34 33 35 35 36 37 38 35 34 33 33 32 32 31 32 33 33 34 35 35 33 33 34 33 31 25 19 14 13 14 14 13 11 11 9 6 6 9
29 30 28 28 31 35 36 36 36 36 35 38 38 37 35 34 33 32 32 31 31 32 34 33 35 35 34 34 32 26 17 13 12 11 10 9 8 8 6 5 4 6 9 11
30 31 33 34 36 38 37 36 35 34 35 37 38 37 36 34 33 33 32 32 31 34 33 34 35 35 33 30 23 15 13 13 11 10 10 12 14 11 9 12 12 11 14 13
27 32 34 35 37 38 37 36 36 34 35 38 38 37 36 34 34 33 33 33 34 34 34 34 34 31 29 25 18 13 11 11 11 13 15 17 17 19 22 22 22 21 21 18
34 36 36 36 37 35 35 35 34 34 34 36 38 37 36 35 35 34 33 31 33 34 34 33 32 29 24 21 15 13 11 13 13 13 14 12 10 9 13 18 19 19 18 18
34 35 35 36 35 35 35 33 33 33 34 36 37 35 35 34 34 34 31 30 33 33 32 32 30 24 20 19 15 13 13 14 9 5 5 5 3 4 4 4 4 6 11 16
34 34 34 34 34 35 34 32 32 32 31 32 37 34 33 32 33 32 29 28 31 31 30 29 26 18 18 18 15 13 13 10 6 6 6 6 6 6 6 7 7 7 8 10
32 32 33 34 34 34 35 32 31 31 31 30 32 35 32 31 32 29 27 27 29 30 29 25 21 17 18 17 15 14 11 8 7 6 9 7 6 6 6 7 7 7 7 8
30 30 32 33 33 34 34 35 35 33 31 29 29 32 32 30 30 29 26 26 27 27 28 24 19 17 18 17 15 11 10 11 10 8 7 6 6 6 6 7 7 8 8 10
31 32 33 33 33 34 35 35 36 36 33 30 27 28 30 30 29 29 26 23 22 22 23 21 18 18 17 15 13 11 11 12 11 6 7 8 6 6 7 8 8 9 10 11
34 34 34 33 34 35 35 32 34 37 33 29 26 26 28 28 28 26 24 22 20 19 19 19 20 19 16 15 13 13 12 11 7 6 7 9 11 9 8 8 9 10 11 11
32 32 32 31 33 35 34 26 26 29 28 26 24 24 24 25 26 27 26 25 24 24 25 20 22 17 15 15 17 12 10 7 4 5 8 9 7 6 7 10 12 11 11 10
28 29 29 29 29 30 32 34 27 24 23 22 22 22 22 22 24 26 27 27 28 28 24 20 21 16 14 15 19 10 8 5 4 4 6 9 8 9 8 9 10 10 11 10
26 27 28 28 26 25 24 29 33 31 27 25 24 25 26 26 25 26 27 27 23 25 21 21 20 16 14 19 17 8 6 4 3 3 5 5 6 6 9 12 13 13 13 13
24 25 27 27 26 25 25 24 23 25 30 31 29 25 25 25 24 22 21 19 19 22 21 21 19 18 17 20 12 6 5 4 4 4 5 9 10 12 13 13 14 14 14 14
23 24 25 26 26 26 26 26 24 22 21 24 27 28 27 25 23 21 19 20 20 22 22 20 21 21 20 19 12 6 5 4 5 8 7 10 12 13 13 13 14 14 13 13
20 22 23 24 24 24 22 23 26 25 23 21 20 20 24 26 26 25 24 24 25 23 24 21 22 23 21 18 12 7 6 8 11 11 8 12 13 14 13 14 14 13 13 14
18 17 17 19 21 20 18 20 23 26 27 25 23 20 20 20 20 20 20 21 22 24 24 20 23 23 22 18 13 8 6 7 9 12 10 14 14 13 13 14 13 13 13 13
15 17 17 14 16 16 19 22 22 23 25 26 26 24 20 19 19 20 20 20 22 23 22 18 21 23 20 19 15 10 8 8 10 12 18 18 15 15 14 13 14 14 13 13

GFSNGP_sfc_30mbdewp_063.txt.gz
Dewpoint
25 25 27 28 28 27 27 26 23 22 19 19 22 24 28 32 37 36 33 31 30 32 32 33 34 35 35 35 34 34 34 34 34 35 36 36 36 36 36 35 35 36 35 35
26 26 26 27 27 28 28 27 25 25 24 24 24 27 31 34 38 36 32 30 28 29 31 34 35 36 36 35 35 35 34 33 33 34 34 35 35 36 36 36 36 36 36 36
22 25 25 24 26 27 28 28 27 26 25 27 26 29 31 38 38 36 31 29 29 28 29 32 34 35 34 35 35 35 34 33 33 33 34 34 35 35 34 34 34 33 33 32
24 25 20 27 28 28 27 27 28 27 26 27 27 30 38 38 38 33 29 30 28 28 29 31 32 32 34 35 35 35 34 34 34 34 34 35 34 33 33 33 33 32 32 32
23 21 21 20 27 27 28 30 28 27 27 28 30 37 39 37 33 31 29 28 28 28 29 30 31 32 33 33 34 34 34 34 35 35 33 33 32 32 32 32 32 32 32 32
26 22 18 28 31 32 31 30 34 31 31 33 35 36 39 36 31 30 28 28 29 29 30 30 30 32 33 33 34 33 34 34 35 34 33 32 32 32 32 32 31 31 32 32
25 23 23 24 33 29 30 32 35 36 36 35 36 38 39 35 32 32 31 31 31 30 30 31 32 34 33 34 32 34 34 34 34 34 33 32 32 32 29 25 23 21 22 23
24 23 21 26 32 28 36 36 35 35 36 36 37 37 35 34 33 33 32 32 31 31 32 33 34 33 32 33 34 35 35 34 34 33 29 24 20 17 15 13 12 11 11 12
24 23 26 30 33 33 35 37 37 36 36 36 39 36 35 34 33 33 32 32 32 33 33 33 35 35 33 34 35 34 32 28 20 15 15 16 16 14 10 9 6 4 6 10
27 28 27 27 31 34 37 36 36 36 36 37 38 38 36 34 33 33 32 31 32 32 33 34 35 36 34 34 33 29 21 14 12 12 11 10 8 8 5 4 4 5 8 10
28 29 32 35 34 37 37 37 36 36 35 36 37 38 37 35 34 33 32 31 31 32 33 34 35 35 34 33 28 19 13 12 12 10 9 11 14 12 10 17 17 12 14 13
27 29 30 34 38 38 37 37 37 36 35 37 37 38 38 36 35 34 32 31 31 34 33 35 35 34 33 29 22 14 12 11 11 13 13 15 17 20 24 23 22 21 21 20
32 36 36 37 37 36 36 36 35 34 35 35 37 38 38 36 35 34 33 33 34 34 34 35 35 32 30 26 18 13 12 13 13 13 14 14 11 10 15 20 19 19 19 18
35 35 35 36 36 35 35 35 34 34 34 35 36 38 37 37 36 35 34 34 34 35 35 35 34 32 27 23 16 14 13 14 13 11 10 9 3 3 3 3 3 5 14 15
33 34 34 35 34 35 36 34 33 33 33 33 36 37 36 36 36 35 35 32 34 34 34 34 33 30 24 21 17 15 14 14 10 7 7 6 5 5 5 5 5 5 6 10
34 33 33 33 34 34 34 35 34 33 33 32 32 35 36 35 35 35 33 31 32 32 32 32 31 26 20 20 17 15 14 12 9 7 7 7 6 5 5 5 6 6 6 7
31 31 33 33 34 33 33 34 35 35 35 33 31 31 35 34 33 33 30 29 32 32 34 31 29 21 20 20 17 15 13 13 11 8 9 6 5 5 5 5 6 7 7 8
31 32 33 33 33 34 34 35 36 36 36 36 32 29 32 33 32 31 28 28 29 30 32 30 26 20 19 18 17 14 12 13 13 9 7 6 6 6 6 7 7 7 8 9
34 34 34 33 33 34 36 35 30 30 35 37 31 28 29 31 32 31 28 26 26 27 27 27 24 21 19 19 17 14 13 13 13 8 7 8 9 7 7 7 7 8 9 10
33 33 33 32 32 33 34 34 30 26 28 30 29 27 27 28 29 28 26 25 26 26 25 25 26 21 18 18 19 15 14 12 9 5 6 7 9 9 7 7 8 9 10 10
29 29 29 29 29 30 29 33 33 27 24 23 24 24 24 25 26 27 27 26 27 28 27 26 28 27 21 18 21 14 12 10 6 5 6 9 7 7 6 7 8 9 9 9
25 26 27 28 27 26 25 24 25 30 32 29 27 26 26 26 25 26 27 28 29 31 31 31 30 30 26 21 21 13 11 8 6 4 5 6 8 8 8 9 13 14 14 14
22 23 23 26 26 27 27 27 25 23 23 28 30 29 27 28 29 28 28 28 27 27 30 29 30 30 31 27 20 14 10 7 5 4 5 9 10 12 14 15 16 16 16 16
21 22 23 24 26 25 23 23 27 26 24 21 23 26 28 28 27 26 26 25 23 22 24 22 23 24 23 20 17 13 9 7 6 7 7 10 15 16 16 16 15 16 16 16
20 20 22 22 19 19 18 18 22 27 27 26 24 21 21 24 26 27 25 23 23 24 23 24 24 25 24 20 17 12 9 9 11 12 11 13 15 16 16 16 16 16 16 16
17 14 15 16 17 17 16 19 20 22 24 25 26 27 24 21 20 21 21 21 23 27 26 23 24 24 24 21 20 14 10 10 11 14 13 13 15 18 18 16 16 15 15 16
17 17 15 15 15 15 17 20 20 19 21 22 22 25 26 25 21 20 20 20 21 22 25 23 22 24 24 22 20 15 11 11 12 13 15 16 18 19 16 15 16 16 16 16

GFSNGP_sfc_30mbdewp_066.txt.gz
Dewpoint
25 25 28 29 28 28 26 26 22 23 19 18 21 24 26 33 37 37 35 32 31 32 33 34 35 36 36 36 35 34 34 34 35 35 36 36 37 37 35 35 36 36 36 36
23 26 26 26 27 28 28 28 27 27 25 26 26 27 30 34 37 37 35 31 29 30 32 34 35 36 35 35 36 35 34 33 34 34 34 34 34 34 35 35 35 34 34 35
23 25 25 21 26 27 28 29 28 25 26 27 27 29 31 37 39 38 34 30 29 29 31 34 34 35 34 35 35 35 34 33 33 33 33 34 34 34 34 34 34 33 33 32
25 25 18 26 28 28 28 28 28 28 28 27 27 31 36 39 39 35 31 30 28 29 30 32 33 33 35 35 35 34 34 33 33 34 34 33 33 33 33 33 32 32 31 32
24 22 22 26 26 26 27 28 28 28 28 28 33 36 37 38 34 31 30 30 28 29 30 31 31 33 34 34 33 34 33 33 33 32 33 33 32 31 31 31 31 31 31 30
25 21 20 30 29 31 30 30 33 29 28 30 35 33 39 35 31 29 28 28 28 29 30 30 30 33 33 33 34 34 34 34 34 34 33 32 32 31 32 31 30 30 32 31
25 23 23 31 33 31 30 32 36 36 35 35 35 39 38 33 32 30 30 30 30 30 30 31 33 34 32 33 33 34 35 35 34 33 32 32 32 31 29 26 24 22 22 23
25 25 19 31 30 28 36 35 36 36 36 36 38 37 35 34 33 32 32 32 31 31 32 33 34 33 33 33 35 35 34 34 34 33 32 30 25 23 17 14 13 14 13 14
24 25 28 29 33 34 36 37 36 36 37 37 38 37 35 34 34 33 33 32 32 33 33 33 34 34 33 34 35 34 33 31 25 21 19 19 16 14 10 8 5 5 9 12
26 27 27 27 32 36 37 37 36 36 36 36 38 38 36 34 34 33 33 32 33 33 32 33 35 35 35 35 34 32 27 16 13 13 13 12 10 8 6 6 5 7 9 11
28 28 30 35 32 34 37 37 37 36 35 35 36 38 37 35 34 33 33 32 32 32 32 33 35 35 34 34 33 26 14 12 12 12 8 14 21 19 14 21 20 14 16 15
29 32 32 37 38 38 38 37 37 36 36 36 37 37 38 36 35 34 33 32 32 32 33 33 34 34 34 33 28 15 13 12 12 11 13 17 19 22 24 23 22 21 21 19
32 36 37 37 37 36 36 35 35 35 35 35 37 38 39 37 35 35 33 32 31 33 33 33 35 35 33 30 23 14 13 13 14 14 15 15 16 20 18 21 21 19 19 18
35 36 34 36 36 35 35 35 35 34 34 34 35 38 38 38 36 35 33 32 33 34 34 34 34 33 32 27 19 14 14 16 14 14 14 12 8 4 4 4 5 8 16 15
34 35 34 34 34 35 35 35 34 34 34 34 34 36 37 37 36 35 35 34 35 35 35 35 34 33 29 24 18 15 14 15 14 10 9 8 5 5 5 5 5 6 7 10
34 34 33 33 33 34 34 34 35 34 34 34 33 33 36 36 37 36 35 34 34 34 35 35 35 33 26 23 18 16 15 16 13 8 8 8 6 6 6 6 6 6 6 7
33 32 33 33 33 33 33 34 35 35 35 36 35 32 33 36 35 35 35 32 34 34 34 34 33 28 23 22 19 16 15 16 15 9 8 8 6 6 6 6 6 7 7 8
31 32 33 33 33 33 34 34 36 36 35 35 36 34 31 34 34 33 33 31 32 33 33 33 32 24 21 21 19 17 15 14 15 11 9 8 6 6 6 6 7 7 8 9
34 34 35 33 33 33 34 35 34 29 26 29 36 33 30 31 33 33 31 29 29 30 32 32 30 26 21 21 20 17 15 13 14 12 9 9 9 8 6 7 7 8 8 9
33 33 33 33 32 32 31 32 34 31 25 25 29 30 28 29 31 31 30 28 28 29 30 31 30 28 24 22 22 16 14 13 13 12 8 7 9 9 9 9 8 8 9 10
32 31 30 29 28 30 29 29 30 32 33 28 24 24 24 25 28 29 28 27 27 28 28 29 29 27 25 25 25 16 15 14 12 10 7 9 8 9 8 7 6 7 9 9
25 26 26 27 27 27 27 26 25 23 26 30 30 29 28 27 26 26 27 27 29 30 29 29 30 30 29 30 29 22 15 13 11 8 7 7 8 8 8 8 8 10 11 12
22 22 23 25 26 26 27 26 27 25 24 22 25 28 29 28 29 29 29 30 30 31 32 31 31 31 31 31 28 23 17 14 9 7 6 8 8 10 11 11 12 14 15 15
21 21 22 23 24 23 18 18 20 27 27 24 22 22 24 26 26 28 28 31 31 29 28 31 31 32 32 30 28 27 26 22 11 9 7 10 12 13 14 15 15 18 17 17
18 19 20 19 17 18 16 17 20 24 24 26 26 26 24 21 23 24 25 25 25 25 23 26 26 28 32 30 28 26 25 18 13 12 10 11 13 15 16 16 17 17 16 16
17 14 15 15 15 17 15 18 20 21 22 21 23 24 26 26 24 21 20 21 22 23 27 26 25 25 26 24 21 18 14 13 13 15 14 13 14 15 16 17 18 17 16 16
16 17 16 16 15 15 15 20 21 19 20 21 20 21 23 24 24 22 21 20 20 21 23 25 24 25 25 25 22 20 16 13 14 14 17 16 16 16 17 18 17 16 15 15

GFSNGP_sfc_30mbdewp_069.txt.gz
Dewpoint
25 26 29 28 27 28 25 24 20 22 20 23 25 25 25 29 37 38 35 33 33 33 33 34 35 35 36 35 35 34 34 35 35 35 35 36 36 36 35 36 36 35 35 35
22 26 26 25 28 28 28 27 25 26 25 26 24 25 31 33 37 36 35 32 31 32 34 35 36 36 35 35 35 34 34 34 34 34 35 34 35 35 35 35 34 34 35 36
21 26 25 21 25 26 28 29 27 25 25 27 26 29 32 35 37 37 37 32 29 30 33 35 35 35 35 35 35 34 34 33 34 34 35 35 35 34 34 33 33 33 33 34
24 24 13 15 29 27 27 29 29 29 27 27 27 30 35 39 39 38 35 31 29 30 33 34 34 35 35 35 35 34 33 33 34 35 34 34 34 33 32 32 30 31 30 30
23 23 20 26 26 26 27 26 30 29 29 29 33 35 35 38 37 36 31 30 29 30 31 32 33 34 34 34 34 34 33 33 33 34 34 33 32 31 32 31 30 30 29 26
25 21 19 28 28 30 30 29 34 30 29 29 35 28 31 35 31 30 30 29 29 30 31 31 32 34 33 33 33 33 33 33 33 34 33 32 32 31 31 30 30 30 30 27
26 22 23 26 33 33 29 29 36 31 29 31 33 34 38 33 30 29 29 29 29 30 30 31 33 33 33 34 34 35 35 35 34 34 32 31 31 30 28 25 23 22 23 24
26 25 20 32 30 30 34 35 36 36 36 37 38 37 34 33 31 31 30 31 30 30 31 34 34 33 34 33 35 35 35 34 33 32 33 31 27 26 25 20 18 16 15 16
25 23 27 31 32 36 37 37 36 37 37 38 38 37 35 34 33 32 32 32 32 32 33 33 34 34 33 34 35 34 33 33 33 31 26 22 17 14 11 11 7 7 10 13
25 26 27 29 33 37 38 37 36 37 36 37 38 38 36 35 34 33 33 32 33 33 32 33 34 33 35 35 35 34 32 29 21 18 17 16 12 10 6 5 6 8 10 12
27 29 29 30 31 35 37 37 36 35 35 35 37 38 37 35 34 33 33 32 33 32 32 33 34 34 35 34 34 32 27 16 13 14 12 12 17 10 15 20 14 12 14 14
27 30 30 35 38 37 37 37 37 37 36 36 36 37 38 36 35 34 33 32 32 32 32 33 35 34 33 33 34 30 16 13 12 11 11 16 22 24 24 23 22 22 22 19
31 36 36 37 37 37 36 36 36 35 35 35 37 38 39 37 36 35 33 32 32 32 33 33 33 33 33 34 33 23 14 13 13 13 14 16 20 19 17 21 22 20 19 18
36 36 35 36 36 35 35 35 35 34 34 34 35 37 38 38 36 35 34 33 32 33 33 33 34 34 34 33 29 19 14 16 13 15 15 16 15 15 15 13 10 7 17 17
35 35 35 35 35 35 35 35 35 34 34 34 34 35 37 37 37 35 34 33 32 34 34 33 34 34 33 31 26 18 14 17 15 15 15 14 10 6 4 4 5 5 6 11
34 34 34 34 34 34 34 34 34 34 35 34 33 33 35 37 37 37 35 34 33 34 34 34 34 34 33 29 24 18 15 16 16 13 11 11 7 5 5 5 5 5 6 6
33 33 33 33 33 33 33 34 35 35 36 35 35 36 33 34 36 36 36 34 34 34 35 35 35 35 33 28 23 19 16 18 20 12 8 8 7 6 5 6 5 6 6 8
32 33 33 33 33 33 34 34 36 35 33 30 30 34 35 32 33 34 35 34 34 34 34 35 35 33 31 27 23 20 17 16 19 13 9 9 8 7 6 6 6 6 7 8
34 34 34 33 33 33 34 34 34 34 29 26 28 32 34 33 32 34 34 33 32 32 33 34 34 33 28 25 24 20 18 16 15 15 11 11 12 9 7 6 6 7 7 7
33 34 34 33 32 32 31 32 33 33 31 27 24 27 29 29 29 31 32 31 31 30 31 33 33 31 28 25 28 21 18 16 15 14 13 10 10 9 9 9 8 7 7 8
32 32 32 32 31 30 27 26 25 25 31 32 30 27 25 24 27 29 29 28 29 29 30 31 33 31 28 25 29 23 24 18 15 14 12 14 9 10 9 9 9 9 9 9
28 26 26 27 27 27 27 27 26 24 23 24 28 29 29 29 28 26 27 27 29 30 30 29 31 30 29 30 31 29 27 25 17 14 13 10 10 9 9 10 10 10 9 9
22 22 23 24 25 26 24 19 23 27 26 23 22 22 25 27 28 29 30 31 31 31 32 31 31 32 33 32 30 29 27 26 25 20 13 12 11 12 12 11 11 12 12 13
21 20 21 21 23 19 13 16 20 25 26 26 26 24 22 21 23 27 27 27 31 32 31 31 32 32 33 31 29 28 27 26 26 25 24 21 16 14 14 13 13 14 15 16
19 18 19 16 16 16 15 17 19 21 22 22 23 24 26 26 23 23 22 21 24 25 26 26 28 32 32 31 29 28 27 27 26 25 24 23 18 15 14 14 14 14 15 16
15 13 14 14 13 15 14 17 18 20 20 20 20 21 23 24 24 24 22 22 21 22 23 25 26 26 26 31 30 28 27 26 26 26 24 20 16 15 15 15 15 16 17 17
17 16 14 14 15 15 14 17 20 18 19 19 20 22 22 21 23 24 23 21 21 20 21 22 24 25 25 25 25 23 20 19 21 21 25 23 20 22 19 16 16 17 17 16

GFSNGP_sfc_30mbdewp_075.txt.gz
Dewpoint
25 24 28 28 28 31 31 31 27 27 25 25 24 24 28 32 35 38 37 37 36 35 35 35 35 34 34 34 35 35 35 35 35 36 36 36 36 35 35 35 36 36 34 34
25 25 28 26 27 28 32 32 33 31 26 27 26 26 27 30 36 37 37 37 36 35 34 34 35 35 35 34 34 34 34 34 35 35 35 35 36 35 35 34 35 36 36 36
21 25 24 22 24 25 28 29 29 27 29 27 26 25 26 28 32 35 37 37 36 34 34 34 35 35 35 34 34 34 34 34 34 35 35 35 34 34 34 33 34 34 33 33
22 23 18 21 23 26 25 25 29 28 28 27 27 27 27 28 28 31 36 36 35 34 34 35 36 35 35 34 34 34 34 34 35 35 35 34 33 33 32 32 29 28 27 26
22 22 21 20 25 27 26 24 27 28 29 28 28 31 31 33 34 33 36 37 34 32 34 35 35 35 35 34 35 34 34 35 34 35 34 33 32 31 31 28 26 25 25 25
24 21 15 18 29 28 30 23 33 29 29 29 31 27 28 36 38 38 38 35 33 32 34 35 35 35 34 34 34 34 34 34 34 35 34 32 32 31 30 28 28 27 25 26
24 22 23 24 25 31 25 23 35 33 31 30 30 30 32 36 34 35 33 31 31 32 33 34 34 34 33 33 33 34 34 34 35 35 33 32 31 29 29 28 28 26 23 23
27 24 20 27 31 28 30 35 36 34 32 31 33 35 36 34 32 31 31 31 31 31 31 33 34 33 33 33 34 35 34 34 34 33 33 32 30 29 26 26 23 21 20 20
27 24 26 29 32 32 35 36 36 36 37 32 34 35 35 33 32 30 30 31 31 31 31 32 33 33 32 34 35 35 34 34 33 33 32 31 28 26 23 20 18 15 13 12
25 25 26 27 30 33 37 37 37 37 38 39 38 37 35 34 32 31 31 30 30 31 31 31 33 33 33 35 35 35 34 33 32 31 30 28 25 23 20 15 12 9 8 10
26 27 29 30 29 30 36 37 36 36 36 37 38 38 37 35 34 32 32 31 31 31 31 32 33 33 34 35 35 33 33 32 31 30 30 22 18 14 13 9 8 5 7 10
24 27 27 27 31 31 36 36 36 35 35 36 36 37 38 37 36 35 33 33 32 32 32 32 33 33 35 35 34 32 31 31 30 26 21 16 14 15 20 18 23 22 19 15
27 30 32 36 37 37 35 37 37 37 36 36 36 37 38 38 37 36 34 33 33 32 32 33 33 33 34 35 35 33 32 30 26 20 16 15 17 17 16 23 25 23 23 23
33 36 35 37 36 37 37 37 36 35 35 35 35 35 37 38 38 36 35 34 33 33 33 33 33 34 34 34 34 33 31 29 23 18 14 14 15 18 19 17 15 17 22 22
33 35 34 36 36 35 35 35 34 34 34 34 34 34 35 36 37 37 37 35 34 33 33 33 33 34 34 34 33 32 31 28 22 16 15 14 14 16 17 17 16 15 8 10
35 35 35 35 35 35 35 34 34 34 34 34 34 34 34 34 34 36 37 35 34 33 33 33 33 34 35 34 33 33 32 30 25 18 15 17 16 15 15 15 14 10 6 4
33 33 33 34 34 34 34 33 33 33 34 34 34 33 32 33 34 34 34 36 34 34 34 34 34 34 35 34 34 34 32 30 28 21 16 15 16 15 13 11 9 7 5 5
34 34 34 34 33 33 33 34 34 35 34 32 29 27 27 29 30 32 34 33 34 34 34 34 34 34 35 35 34 34 32 27 26 23 18 15 14 14 12 10 8 7 6 5
34 33 33 33 33 34 34 34 34 34 33 30 29 26 26 28 31 32 31 32 33 33 34 34 35 35 34 34 34 32 29 27 24 23 20 17 16 13 11 10 8 7 7 6
34 33 33 33 33 32 32 29 29 30 30 33 33 30 29 27 25 27 29 30 31 32 32 32 33 34 35 35 35 32 29 27 26 25 23 18 15 14 13 12 9 8 8 7
33 33 33 33 32 32 31 29 26 25 24 24 27 29 29 30 30 28 26 27 28 30 30 30 31 33 34 34 35 33 30 28 28 28 27 28 26 24 21 20 18 11 10 8
31 31 31 31 30 29 28 27 28 28 26 23 23 22 23 24 25 27 31 30 31 33 32 31 30 31 33 33 32 32 31 29 29 29 28 27 27 27 27 26 25 25 22 17
28 26 25 26 26 26 18 16 23 26 26 26 25 25 24 23 23 26 24 24 25 27 31 32 32 33 33 33 31 31 30 29 29 29 28 28 28 28 27 27 26 26 25 24
21 20 19 21 24 19 11 14 20 21 21 23 24 24 24 23 24 24 25 24 24 25 24 25 28 32 33 32 31 31 30 29 29 29 28 29 28 28 27 27 26 26 26 26
20 19 18 17 16 13 13 16 17 19 19 19 20 20 22 23 23 23 24 23 23 23 22 22 25 27 27 30 31 30 30 29 29 28 27 27 27 26 26 26 26 26 26 25
18 13 14 14 11 13 13 15 14 17 18 17 18 20 21 19 20 22 22 23 23 23 22 22 22 24 24 25 27 28 29 29 29 29 28 27 26 26 26 25 25 25 26 24
16 16 13 12 13 13 14 13 15 16 18 18 17 20 21 17 18 20 20 19 20 21 22 22 22 23 23 23 23 24 25 26 28 28 27 27 26 25 25 24 24 24 24 24

GFSNGP_sfc_30mbdewp_078.txt.gz
Dewpoint
26 25 29 29 31 32 31 31 28 26 25 25 26 26 25 30 36 39 38 38 38 37 37 36 35 34 35 35 35 36 35 35 35 36 36 36 36 35 35 36 36 35 34 34
24 25 27 27 28 29 32 32 32 31 30 32 29 27 26 28 34 38 38 38 37 37 36 36 35 34 34 34 35 35 35 35 35 36 36 36 35 35 35 35 36 36 35 36
23 25 24 22 24 26 27 31 31 29 31 31 29 29 27 28 34 36 37 38 37 37 36 35 35 35 34 34 34 34 34 34 35 35 35 35 34 34 34 34 34 33 32 33
22 23 18 19 23 25 25 26 30 31 31 30 29 28 27 28 30 34 36 38 37 36 35 35 35 35 35 34 34 34 34 34 35 35 35 34 34 33 32 31 29 27 27 27
24 22 21 21 23 24 24 22 26 27 28 29 29 29 29 30 29 30 34 36 36 36 35 35 35 35 35 34 34 34 34 35 35 35 34 33 32 32 31 27 25 24 24 25
25 21 17 16 29 28 28 23 30 32 30 28 30 27 28 31 34 34 34 36 35 33 35 35 35 35 34 34 34 34 34 35 35 35 34 33 32 31 29 26 26 25 26 26
25 23 21 24 25 30 24 21 35 34 32 31 29 29 30 35 37 37 36 34 33 33 34 35 35 35 34 34 34 34 34 35 35 35 34 33 32 30 28 28 27 23 22 23
27 25 21 27 30 27 28 34 36 36 33 32 32 33 35 35 34 33 32 32 32 32 33 34 34 34 33 33 34 34 34 34 34 34 34 32 30 29 28 27 25 22 20 20
26 24 26 29 31 32 33 34 36 36 37 32 34 35 35 33 32 32 31 31 32 32 32 33 34 34 33 33 34 34 34 34 33 33 32 32 29 28 25 24 21 18 15 13
27 26 27 28 28 31 34 36 37 37 39 36 35 36 35 34 32 31 31 31 31 31 31 32 33 33 33 34 35 35 34 33 33 32 31 31 29 27 23 20 17 14 12 10
25 26 28 29 29 28 32 37 36 36 37 38 38 38 36 35 33 32 31 31 31 30 31 31 32 33 33 35 35 34 34 33 32 32 32 29 27 24 22 18 15 11 8 8
24 26 26 26 29 30 33 36 36 35 35 36 37 37 38 38 36 34 33 32 31 31 31 31 32 33 34 35 35 34 33 32 31 31 30 26 23 18 20 18 17 18 15 11
27 28 28 34 36 36 33 36 36 36 37 36 36 37 37 38 37 36 35 34 33 32 32 32 32 33 34 35 35 33 32 32 31 30 28 25 18 15 14 20 24 25 26 24
33 35 33 36 35 37 37 37 36 35 35 35 35 35 36 37 38 37 36 35 34 33 33 32 33 33 34 35 35 34 33 32 30 29 25 21 17 17 17 15 16 21 25 23
32 35 34 36 36 35 35 35 34 34 34 34 34 34 34 34 35 36 37 36 34 34 33 33 33 33 34 35 34 34 32 32 31 26 22 18 16 16 17 17 16 15 14 15
34 35 35 35 35 35 35 34 34 34 34 34 34 34 34 34 34 34 34 36 35 34 34 33 33 34 35 34 34 33 32 32 30 25 21 18 16 14 15 15 16 16 15 13
33 33 34 34 34 34 34 33 33 33 33 33 33 31 29 29 30 31 33 34 35 35 34 34 34 34 35 34 33 33 33 33 33 28 23 19 17 16 14 14 14 14 13 11
34 34 34 34 34 33 33 33 34 35 34 32 28 26 26 26 28 30 32 33 33 33 34 34 34 34 34 34 34 34 33 33 32 32 26 22 18 17 16 14 13 12 11 9
33 33 33 33 34 34 34 34 34 34 33 33 32 30 26 27 26 27 28 29 31 32 32 33 33 34 34 34 34 34 34 33 30 30 28 25 23 18 16 14 13 12 11 9
33 33 33 33 33 33 31 29 29 28 27 31 33 33 31 31 30 28 27 29 29 29 30 30 32 33 34 34 35 33 33 31 30 28 30 27 26 26 21 15 13 12 10 9
33 34 34 33 32 31 29 28 26 26 25 24 24 24 24 27 26 28 30 29 29 32 32 31 30 31 33 34 35 35 32 31 30 30 29 30 28 28 27 26 25 22 15 11
32 32 32 32 31 29 25 25 27 27 25 24 23 24 23 23 23 26 29 25 25 26 31 31 32 32 33 33 33 33 32 31 31 30 29 29 29 28 28 27 27 26 27 26
28 26 26 26 26 26 17 16 23 24 25 25 25 25 24 24 24 24 24 25 25 26 25 26 29 33 33 32 32 31 31 30 30 29 29 29 28 29 28 28 28 28 28 27
21 20 19 21 23 20 13 12 19 20 20 21 21 21 22 20 21 24 24 24 25 25 24 24 26 27 29 31 31 31 30 30 30 29 29 30 29 28 28 28 28 28 27 27
20 19 18 16 16 12 12 15 16 18 18 18 18 20 21 22 21 21 23 22 24 24 23 23 24 25 24 25 27 29 29 29 29 29 28 28 28 28 27 27 27 27 27 26
19 18 14 14 12 11 12 13 12 15 17 16 16 19 21 19 18 20 20 20 20 22 22 22 23 24 23 23 24 25 26 27 28 28 29 28 27 27 26 26 26 25 26 27
17 17 13 13 13 12 13 12 12 12 17 17 16 18 21 17 16 18 19 17 18 19 19 20 21 23 23 23 22 22 21 22 24 25 26 26 26 26 25 25 25 24 24 24

GFSNGP_sfc_30mbdewp_081.txt.gz
Dewpoint
28 25 30 29 29 31 31 30 26 25 24 26 26 26 26 26 32 38 39 39 39 38 38 37 36 35 35 36 36 36 36 36 36 36 36 36 36 36 36 36 35 34 34 34
27 27 26 26 28 31 30 30 30 29 29 31 31 29 31 32 30 35 38 39 39 38 38 37 36 35 35 35 36 36 35 35 36 36 36 36 35 35 36 36 36 36 36 36
25 24 24 23 25 27 28 31 31 29 30 31 31 32 33 34 33 32 37 39 39 38 38 37 36 35 35 35 35 35 35 35 35 36 36 36 35 34 35 35 34 34 35 35
25 23 18 20 23 27 27 27 30 31 30 31 31 32 32 29 28 31 36 38 39 38 37 37 36 35 35 35 34 34 34 35 35 35 35 35 34 33 33 32 31 30 30 30
24 22 21 21 21 23 23 20 26 27 29 30 31 30 30 30 29 29 34 37 38 38 37 36 36 35 35 34 34 34 34 34 35 35 35 34 33 33 31 29 27 26 27 27
25 21 16 18 28 29 28 23 28 29 30 30 29 27 28 30 31 30 31 36 37 37 36 36 35 35 34 34 34 33 34 35 35 35 34 34 33 32 29 27 26 27 27 27
25 23 23 23 27 30 22 19 33 35 35 32 30 29 30 35 36 36 35 35 34 35 35 35 35 35 34 34 34 34 35 35 35 35 34 33 32 31 28 27 26 25 25 24
27 24 21 27 28 24 27 33 35 36 35 32 32 32 34 35 35 35 34 34 34 34 34 35 35 35 34 34 34 35 35 35 35 35 34 33 31 29 28 27 25 22 21 21
26 24 26 29 28 31 33 33 35 36 37 33 33 34 34 33 33 33 33 33 33 33 33 34 35 35 34 34 34 34 34 34 34 34 33 32 30 29 27 26 25 22 19 17
27 25 27 27 28 30 32 34 37 37 38 34 33 35 35 33 32 32 32 31 32 32 32 33 34 34 34 33 34 34 34 34 34 33 32 31 30 29 27 25 23 19 15 12
26 26 26 28 28 28 29 33 37 37 38 38 39 37 36 35 33 32 32 31 31 31 31 32 33 33 33 34 34 34 34 33 33 32 32 30 30 28 25 22 20 16 14 11
25 26 26 25 27 30 30 33 37 36 35 36 37 38 38 37 35 33 32 31 31 31 31 31 32 33 33 35 35 34 33 33 32 32 32 31 30 28 28 26 24 24 20 13
28 30 29 29 36 35 32 34 36 36 36 36 36 37 37 37 37 37 34 33 32 31 32 32 32 32 33 34 35 34 33 33 32 32 31 30 27 23 21 19 24 22 22 22
31 33 33 34 34 36 36 37 36 35 35 35 35 35 36 37 37 37 36 36 35 34 33 32 32 32 34 35 35 34 34 33 32 32 30 29 26 22 18 16 14 20 26 26
30 34 35 35 36 35 35 35 34 34 34 34 34 34 34 34 34 34 35 36 35 34 34 33 33 33 34 35 35 34 33 33 32 31 29 28 25 22 19 17 16 15 16 20
35 35 35 35 35 35 34 34 34 34 33 33 34 34 33 33 33 33 34 35 35 35 34 34 33 34 34 34 34 34 33 33 33 31 29 27 23 21 18 17 16 16 15 14
34 33 34 34 34 34 34 33 33 33 33 33 32 30 29 29 29 30 30 32 33 34 35 35 34 34 35 34 34 34 33 33 34 30 28 26 24 21 17 15 15 15 15 15
34 34 34 34 34 33 33 33 34 34 33 31 29 28 27 27 28 28 29 29 30 32 32 33 34 34 34 35 34 34 33 33 33 33 29 27 24 22 19 16 15 14 14 14
33 33 34 34 34 34 34 34 34 33 33 34 34 32 29 29 29 27 27 29 29 30 30 30 31 33 33 34 34 34 34 33 33 33 33 30 30 28 23 22 22 17 15 13
33 33 33 32 32 32 30 29 28 26 25 26 29 27 26 28 28 29 30 28 29 30 33 32 30 31 32 33 35 33 33 33 33 32 31 31 30 29 28 27 27 26 23 17
34 34 34 33 31 30 29 28 28 27 25 24 23 23 23 23 23 27 29 29 25 27 31 32 32 31 32 33 34 34 33 33 32 32 31 31 30 30 29 28 28 28 26 25
33 32 32 32 31 28 21 24 26 26 25 24 25 25 24 23 24 27 25 24 25 27 26 27 30 32 33 33 33 33 32 32 32 31 31 30 30 29 29 29 28 28 27 27
26 26 27 27 26 24 16 16 22 22 23 24 23 22 21 21 23 23 22 25 25 26 24 24 27 28 30 32 32 31 31 31 31 30 30 30 30 29 29 29 29 29 28 28
21 19 18 21 22 19 12 11 17 19 19 19 20 20 21 19 20 24 23 23 25 26 25 25 26 27 26 26 28 29 30 30 30 30 29 30 29 29 29 29 29 29 29 29
20 20 18 15 14 12 12 14 15 16 17 17 17 19 21 21 19 20 21 20 21 23 22 23 25 25 23 23 23 25 26 28 28 29 29 28 28 28 28 28 28 28 28 27
20 19 17 14 13 12 11 12 10 13 16 15 16 18 20 20 17 19 19 19 18 20 19 20 21 23 23 23 23 22 22 23 24 24 26 27 28 27 27 26 26 26 26 26
19 19 16 14 13 13 13 12 11 10 15 17 15 16 20 20 16 17 18 17 16 17 17 18 19 20 21 22 21 21 20 20 22 23 23 23 24 25 25 25 25 24 24 24

GFSNGP_sfc_30mbdewp_084.txt.gz
Dewpoint
28 27 29 29 28 30 31 31 25 25 23 24 23 23 24 27 28 31 37 38 40 40 40 39 38 37 37 37 37 37 37 37 37 37 38 37 37 37 37 36 35 35 35 35
30 32 29 28 28 29 29 29 28 27 27 27 27 27 29 29 29 31 32 37 39 40 40 39 38 37 36 37 37 37 37 37 37 37 37 37 37 37 37 36 36 36 35 35
26 29 29 26 26 27 28 29 29 28 28 28 28 29 30 30 31 32 33 33 37 39 40 40 39 38 36 36 36 36 36 36 36 36 36 36 36 36 36 36 36 36 37 36
25 24 19 21 24 27 26 26 28 29 28 28 28 29 31 32 31 32 31 32 35 39 40 40 39 38 37 36 36 36 36 36 36 36 36 36 35 35 35 34 34 34 34 35
24 22 21 22 23 24 24 21 25 26 27 28 28 30 31 31 32 33 32 32 35 38 40 40 39 38 36 35 35 36 35 36 36 36 36 35 35 35 34 32 31 31 32 31
27 21 17 17 27 26 27 21 29 28 29 31 32 29 30 32 32 31 31 33 37 39 39 38 38 37 36 35 35 35 35 35 36 36 36 35 35 34 32 31 30 30 30 30
26 24 23 23 28 29 19 20 32 35 36 35 32 31 32 34 36 37 34 33 37 38 37 37 37 36 36 35 35 35 35 36 36 36 36 35 34 33 30 29 28 28 27 26
26 24 20 27 29 24 25 33 34 36 37 35 34 33 34 35 36 36 36 35 36 36 37 37 37 36 36 36 36 36 36 36 36 36 35 34 33 31 28 27 26 24 23 22
26 22 27 28 26 28 32 32 34 37 37 34 34 34 35 35 34 35 35 35 35 37 37 37 37 37 36 37 36 36 35 35 35 35 35 34 32 30 28 27 25 21 19 17
28 25 28 28 28 32 32 33 35 38 38 34 33 35 35 34 33 33 33 34 34 34 34 35 36 36 36 36 35 35 35 34 35 34 33 32 31 30 29 28 25 21 19 15
27 27 27 27 29 28 29 30 33 37 38 39 39 37 36 35 34 33 33 32 33 33 33 34 34 35 34 34 35 34 34 34 34 34 34 31 31 30 30 28 24 21 18 13
26 29 27 27 30 30 30 31 33 37 36 38 38 38 38 37 36 34 33 32 33 34 33 34 34 34 34 34 34 34 33 34 34 33 33 31 30 30 32 28 26 25 20 16
25 30 30 31 31 36 33 32 37 36 36 37 37 37 38 38 38 37 34 33 33 32 32 32 32 33 34 34 34 34 34 34 33 33 32 31 31 30 30 30 30 28 27 27
22 28 33 34 34 37 36 37 37 36 36 35 35 36 37 37 37 37 37 37 36 35 34 33 32 33 34 34 35 34 34 34 33 33 32 32 31 30 29 23 19 21 26 25
19 23 34 34 36 36 36 36 35 34 34 34 34 34 34 34 34 34 35 36 36 35 35 34 33 33 34 34 34 34 34 34 34 33 32 31 30 29 26 22 18 16 17 23
31 34 36 35 35 35 35 35 35 34 34 34 34 34 32 32 32 32 33 34 35 35 36 35 34 34 34 35 35 34 34 34 34 32 31 31 29 28 27 26 23 19 16 15
27 28 34 34 34 35 35 34 35 34 34 33 32 31 29 29 30 30 31 32 33 33 34 35 36 36 35 35 35 34 34 34 35 33 31 30 30 28 28 27 25 21 18 16
32 34 34 34 34 34 33 33 34 34 33 31 30 29 28 28 28 28 27 29 30 32 32 32 33 34 34 35 35 34 34 34 34 34 31 30 30 30 30 28 23 21 18 16
34 34 34 34 34 34 34 34 34 33 33 34 34 32 31 31 31 30 30 29 30 30 32 33 32 32 34 34 35 35 34 34 33 33 33 31 31 30 29 29 28 27 26 27
33 33 33 32 32 32 31 30 28 26 26 27 28 26 26 25 24 27 30 29 27 29 31 32 32 32 32 33 34 34 34 34 34 33 33 33 32 31 30 29 29 29 29 29
34 34 33 32 31 31 30 29 28 26 24 23 23 23 23 24 25 29 28 28 25 26 27 28 30 31 32 33 34 34 34 33 33 33 32 32 32 31 31 30 29 29 29 29
32 32 32 32 31 27 23 24 25 25 24 24 25 24 22 22 24 27 26 24 25 27 26 24 27 28 30 33 32 32 32 32 32 32 31 31 31 31 30 30 29 29 29 29
29 28 29 29 27 22 16 17 21 21 22 22 21 19 19 20 22 22 21 23 25 26 25 24 27 28 27 28 30 30 31 30 30 31 31 31 31 31 31 31 31 31 31 30
30 20 18 21 22 19 11 11 18 19 19 19 20 20 20 18 21 23 22 22 22 24 23 24 26 27 25 24 25 27 28 29 29 30 30 30 30 30 30 30 30 30 31 31
30 23 20 18 14 13 12 14 15 16 16 16 17 19 21 20 18 19 20 19 20 21 20 20 22 24 23 23 23 23 24 24 25 26 27 28 28 28 28 29 29 29 28 28
29 24 19 17 15 13 12 12 10 11 14 14 15 17 20 20 18 18 18 19 18 18 18 18 19 20 20 21 22 21 22 22 22 23 23 24 24 25 26 27 26 26 26 27
25 22 20 18 15 14 14 13 11 11 13 15 14 15 17 20 18 18 17 16 16 16 16 17 18 19 19 20 20 20 19 19 20 22 22 22 22 23 23 23 24 25 25 25

GFSNGP_sfc_30mbdewp_087.txt.gz
Dewpoint
29 27 27 29 28 28 30 31 27 26 24 24 24 24 24 24 25 27 29 34 37 39 39 39 39 39 39 39 38 38 38 38 38 38 38 38 38 38 38 37 36 36 35 36
30 34 28 27 27 28 28 28 29 29 27 27 26 26 26 26 26 28 29 30 36 38 39 39 39 38 38 38 38 38 38 38 38 38 38 38 38 37 37 37 37 36 36 36
27 32 31 27 29 28 28 28 27 27 28 28 27 27 27 28 28 28 29 31 32 37 39 39 39 39 38 38 38 37 37 37 38 37 37 37 37 37 37 37 36 36 37 36
28 29 21 21 26 28 27 26 27 27 27 27 26 26 27 28 28 29 30 30 33 33 38 40 40 39 38 38 37 37 37 37 37 37 37 37 36 36 36 36 36 36 36 36
25 22 18 19 23 23 23 20 23 24 23 24 25 27 30 31 32 31 30 31 32 32 35 40 40 39 38 37 37 37 37 37 37 37 37 36 36 36 36 34 33 33 34 34
29 24 15 18 24 25 25 19 26 26 27 31 33 30 30 34 34 34 32 32 32 35 36 39 40 39 38 36 36 36 36 37 37 37 37 36 36 36 34 33 32 33 32 32
26 22 21 23 27 28 18 21 33 34 35 35 33 32 34 34 34 37 36 32 33 37 39 40 40 39 37 37 37 37 37 37 37 37 37 37 35 34 33 31 30 31 29 27
28 25 19 26 28 23 26 32 31 34 37 36 34 33 33 35 35 37 36 35 36 38 39 39 39 38 38 38 38 37 37 37 37 37 36 36 35 33 31 29 29 28 26 24
26 23 27 28 26 29 27 28 31 36 38 37 33 33 34 35 35 35 36 36 37 39 39 39 39 38 38 38 38 37 36 37 37 37 36 35 34 32 29 28 28 26 22 20
28 25 26 28 28 28 30 30 32 34 37 37 34 35 35 35 34 34 35 35 36 37 37 37 37 37 38 37 37 36 36 36 36 35 35 34 33 31 29 28 28 25 20 18
31 30 29 27 29 30 30 29 30 32 36 38 39 38 37 36 35 34 34 34 34 34 34 35 35 36 36 36 36 35 35 35 35 34 34 33 32 31 30 30 30 26 21 19
19 31 32 29 31 32 32 31 31 32 37 38 39 38 38 37 36 34 34 33 33 34 33 34 34 35 35 36 35 35 34 34 34 34 34 32 31 31 32 32 31 29 26 20
17 25 26 31 33 35 36 35 34 37 37 37 37 38 38 38 38 37 35 34 34 34 34 36 37 38 36 34 35 35 34 34 34 34 33 32 31 30 30 32 33 28 29 27
27 28 23 33 34 34 36 37 37 37 37 36 36 37 37 37 37 37 37 37 37 36 35 34 33 33 35 36 36 36 35 35 34 34 33 33 32 31 31 31 30 30 31 30
22 25 30 26 36 35 36 36 36 35 35 34 35 35 35 35 35 35 35 36 36 36 36 35 34 34 34 35 35 35 35 34 35 34 34 33 32 32 32 31 28 21 20 24
23 31 33 35 37 36 36 36 36 35 35 35 35 34 33 32 32 32 32 33 34 35 36 36 36 36 35 34 34 35 34 34 35 34 33 33 32 31 30 29 27 24 20 17
23 26 24 27 35 35 35 35 35 35 34 34 33 31 30 30 31 30 30 30 31 33 34 35 34 35 36 35 35 35 34 34 35 35 33 32 31 30 30 30 29 28 27 22
27 28 31 33 34 34 34 34 34 34 33 31 31 31 30 30 30 30 30 29 31 32 33 33 33 32 33 35 35 35 35 34 34 35 33 32 32 32 31 31 32 31 29 27
34 34 35 35 36 36 35 34 34 34 34 34 34 33 32 31 30 30 31 30 30 31 31 33 33 33 32 33 34 35 35 34 34 34 34 33 32 32 31 31 31 31 31 30
35 35 34 34 34 34 33 32 28 27 26 27 27 26 26 24 24 26 31 28 25 26 29 28 30 31 33 33 35 34 34 34 34 34 33 33 32 32 31 31 30 30 30 29
34 34 33 33 32 32 32 32 29 27 23 23 23 23 23 24 25 28 27 27 25 27 28 25 27 29 30 32 33 33 33 32 32 33 32 32 32 32 32 31 31 30 30 30
32 32 32 32 30 23 20 23 24 24 23 23 23 22 20 20 23 26 26 24 25 27 27 25 27 28 29 29 30 31 31 31 31 31 31 31 31 31 31 31 31 31 30 30
29 28 27 28 26 21 16 16 19 20 21 21 20 18 18 19 21 22 19 23 23 25 25 24 27 27 28 26 26 28 28 30 30 30 30 31 31 31 31 31 31 31 31 31
31 30 23 19 22 19 14 11 16 17 18 18 19 19 20 18 19 23 20 21 21 22 22 22 24 25 25 24 25 25 26 26 27 28 29 29 30 30 30 30 30 30 31 31
32 31 24 21 18 15 14 14 15 16 17 16 17 18 20 20 18 18 19 19 19 19 19 19 21 21 20 21 22 22 22 23 24 25 25 25 25 26 27 28 29 29 29 29
32 31 31 27 20 16 14 14 13 11 12 13 15 16 18 20 19 18 17 18 18 18 17 17 18 20 19 19 20 21 20 21 21 22 23 23 23 23 23 23 23 24 25 26
29 30 28 24 20 17 16 15 13 13 13 13 12 15 17 19 20 18 18 16 16 16 16 16 17 18 19 19 19 19 19 19 19 19 20 21 22 23 23 22 22 22 23 22

GFSNGP_sfc_30mbdewp_090.txt.gz
Dewpoint
29 27 31 33 30 31 33 33 27 26 27 26 25 25 25 26 27 27 28 30 37 39 39 40 41 41 41 40 39 39 39 39 38 39 39 38 38 38 38 37 37 36 36 36
31 34 33 31 30 29 30 31 32 30 28 29 30 30 29 28 28 28 29 30 31 38 39 39 40 40 40 39 39 39 38 38 38 38 38 38 38 38 38 37 37 36 36 36
27 32 31 27 30 29 29 29 30 29 29 29 29 28 28 28 29 28 29 29 30 34 39 40 40 39 39 38 38 38 38 38 38 38 38 38 38 37 37 37 36 36 36 36
28 29 20 24 26 30 28 29 29 29 29 29 29 28 28 28 28 28 29 30 31 34 38 40 40 39 38 38 38 38 38 38 38 38 37 37 37 36 37 36 36 36 37 36
26 25 22 21 23 27 28 27 28 27 27 26 26 28 27 33 33 33 33 32 31 33 34 40 40 40 38 38 38 38 38 37 38 38 37 37 36 37 36 35 35 35 35 35
28 23 20 21 23 24 24 19 28 25 27 31 32 30 32 35 34 34 36 35 33 34 35 39 40 39 38 37 37 37 37 37 37 38 37 36 36 36 35 34 33 33 33 34
26 25 24 25 25 27 18 27 34 34 35 36 34 34 34 34 35 37 37 36 35 36 38 38 40 39 38 37 37 37 38 38 37 37 37 36 36 35 34 33 32 32 32 31
27 25 22 28 28 22 29 31 31 34 37 37 35 33 33 35 35 36 36 36 38 39 40 40 40 39 38 37 38 38 38 37 37 37 37 37 36 34 33 31 30 30 29 27
32 28 29 29 28 28 29 28 31 36 38 38 34 34 34 35 35 35 36 36 39 39 38 39 39 39 38 38 37 37 37 37 37 37 36 36 35 33 31 30 29 29 27 24
29 28 30 31 29 31 31 30 31 34 35 38 35 36 36 35 34 35 35 35 38 38 38 38 38 39 39 38 37 37 36 37 36 36 35 35 34 32 31 29 28 28 24 22
27 27 30 31 31 32 33 33 30 31 32 38 39 38 37 35 34 34 34 34 35 36 36 36 36 36 38 37 37 36 36 36 35 35 35 34 33 32 31 30 30 28 24 21
18 22 29 31 25 33 35 36 34 32 35 38 39 38 38 37 35 34 34 34 34 34 35 35 35 35 35 36 36 36 35 35 34 34 34 33 32 31 33 32 33 33 29 23
22 27 26 25 30 34 35 36 37 36 37 37 38 38 38 38 38 37 35 35 34 34 36 36 37 36 37 37 37 35 35 34 34 34 33 33 32 31 30 32 34 34 33 31
26 20 26 24 27 28 36 36 36 36 36 36 37 37 38 37 37 36 36 37 37 36 35 34 33 33 35 36 36 35 36 36 35 35 34 33 32 31 31 31 31 32 34 31
30 21 24 30 34 36 37 36 36 35 35 35 35 35 36 35 35 35 35 35 36 36 36 36 35 35 34 35 36 36 36 35 35 34 34 33 32 32 32 31 32 31 28 30
31 30 27 31 34 37 36 36 36 35 35 35 34 33 32 32 32 32 32 32 33 34 35 36 36 36 36 34 34 35 35 35 35 34 34 34 33 32 31 31 31 31 28 21
29 29 26 26 30 34 35 35 35 35 35 33 31 31 30 31 31 29 29 30 31 33 33 33 33 32 33 35 35 35 35 35 35 35 34 33 33 32 32 31 31 30 29 27
32 30 32 34 34 35 35 34 34 33 32 31 32 31 31 31 31 31 31 30 31 32 31 33 33 33 33 34 35 35 35 34 34 35 34 33 32 32 32 31 31 31 32 32
34 35 35 35 36 37 36 35 34 34 34 34 34 32 31 29 28 28 31 30 28 29 28 29 30 32 33 34 35 35 35 34 34 34 34 34 33 32 31 31 31 31 32 32
35 35 35 33 34 34 33 33 32 31 27 26 26 25 25 24 25 28 30 26 25 26 28 26 28 29 29 31 32 33 33 33 33 33 33 33 32 32 32 32 31 31 31 31
33 33 32 32 32 32 33 33 30 26 23 24 23 23 23 23 26 26 26 27 25 27 28 26 28 28 28 29 30 30 31 31 31 31 31 32 32 32 32 31 31 31 31 30
32 32 32 32 29 23 18 21 23 23 22 22 22 20 18 18 21 26 26 23 24 26 26 25 27 27 28 27 27 27 27 29 30 30 30 31 31 31 31 31 31 31 31 30
29 26 24 24 24 22 16 13 17 18 19 20 19 17 17 18 19 21 20 22 22 23 23 23 25 25 26 25 24 25 26 26 26 27 28 29 30 30 30 30 30 31 31 31
31 31 30 24 20 18 16 12 12 16 17 17 17 19 18 18 18 23 20 21 20 22 21 20 22 23 23 22 22 23 23 23 24 24 25 25 26 27 28 28 28 29 30 30
32 32 31 31 26 20 16 15 14 14 15 15 16 17 18 20 18 18 18 18 19 19 18 19 20 21 20 19 19 21 21 21 21 22 22 23 23 23 24 24 24 25 26 28
32 32 32 32 31 30 25 15 14 14 13 12 13 15 17 19 20 19 17 18 18 18 17 16 17 19 19 19 19 20 20 20 19 19 20 20 20 22 22 22 22 22 23 24
27 29 30 29 28 28 25 19 15 15 15 14 13 13 15 17 19 20 18 17 16 16 16 16 16 17 19 19 19 18 18 19 19 19 19 19 19 19 20 21 21 21 21 21

GFSNGP_sfc_30mbdewp_093.txt.gz
Dewpoint
31 31 33 33 32 33 32 31 26 25 26 26 27 27 25 26 27 28 30 36 37 37 39 40 41 42 43 42 41 41 40 40 39 39 39 38 37 37 37 37 36 36 36 36
28 32 33 30 32 33 33 34 33 31 29 29 29 31 30 29 29 28 28 29 35 38 39 39 40 41 41 40 40 40 39 39 39 39 38 38 38 38 37 37 36 36 36 36
23 32 31 27 30 31 29 32 33 31 31 31 31 30 30 29 29 28 29 30 30 34 39 39 40 41 41 40 39 39 39 39 38 38 38 38 38 37 37 36 36 36 36 36
21 29 20 24 28 31 30 28 31 32 31 31 31 31 31 29 28 28 28 30 30 31 37 40 40 41 40 39 39 38 38 38 38 38 38 38 37 37 36 36 35 36 36 36
22 25 26 21 22 29 29 28 30 30 30 30 29 28 28 34 34 33 34 34 34 32 33 40 40 40 39 39 38 38 38 38 38 38 38 37 36 36 36 35 35 36 36 36
24 22 18 22 23 25 25 20 31 26 28 28 31 24 27 35 34 35 37 37 36 35 34 38 40 39 39 38 38 38 38 38 38 38 37 36 36 36 36 35 34 35 35 35
22 23 24 26 24 27 17 22 34 35 36 36 34 34 34 34 35 37 37 36 36 37 38 38 40 39 38 38 38 38 38 38 38 38 37 36 36 36 35 34 34 33 33 33
24 23 21 28 27 23 28 31 32 34 37 37 35 34 33 35 35 36 36 36 39 39 39 40 40 39 38 38 38 38 38 38 37 37 37 36 35 35 34 33 32 32 32 31
30 28 35 36 31 32 31 30 31 37 38 38 34 34 34 35 35 35 35 37 39 38 38 38 39 39 37 38 38 38 37 37 36 37 37 36 35 34 33 32 31 30 29 28
27 29 30 34 31 31 34 33 32 33 35 38 35 36 36 35 35 35 35 36 38 38 37 37 39 39 38 38 37 37 36 36 36 36 36 36 35 34 33 31 30 30 29 27
25 23 26 32 27 31 34 36 37 35 31 37 39 37 36 36 35 34 34 34 36 37 37 37 37 38 38 37 37 36 36 36 36 36 36 35 34 33 32 31 31 30 29 26
18 23 23 24 25 30 31 34 36 37 35 38 39 38 37 35 35 34 34 34 34 35 35 35 35 36 37 37 37 36 36 36 36 35 35 34 33 32 34 33 33 34 32 27
22 26 26 25 27 30 34 35 37 37 38 38 38 38 38 37 36 37 36 35 34 35 35 35 35 35 35 36 36 36 36 36 35 35 34 33 33 32 31 32 35 35 35 33
33 30 28 24 26 31 34 35 38 36 36 37 38 39 38 37 36 35 36 36 36 35 34 34 34 34 36 38 38 38 37 37 36 35 34 33 33 32 31 31 31 32 35 35
33 32 30 26 29 35 37 38 38 36 35 35 36 36 36 35 35 34 33 34 36 36 36 36 35 35 34 35 35 35 35 36 36 35 34 34 33 32 32 31 31 32 32 34
32 31 30 27 27 30 36 37 37 35 35 35 33 32 33 33 32 31 30 32 33 34 34 34 33 33 33 35 34 35 35 35 35 35 34 34 33 32 31 31 31 31 31 31
31 28 29 27 31 33 34 35 35 37 35 33 31 31 31 31 30 30 30 31 33 33 33 33 32 33 33 34 35 34 34 35 36 35 34 34 33 32 32 32 31 31 32 32
34 33 34 34 35 35 36 35 34 33 32 31 31 31 32 32 32 31 30 31 32 29 28 30 31 33 33 34 34 34 35 34 34 34 34 33 33 33 32 32 32 31 32 32
35 35 34 34 35 36 35 34 33 32 33 34 34 32 29 27 26 29 30 27 27 27 27 27 29 29 30 31 33 33 33 33 34 33 33 34 34 33 32 31 31 31 32 32
35 35 35 33 33 33 33 33 33 32 32 32 29 26 24 24 26 28 28 25 25 27 28 27 28 28 28 29 31 31 32 32 32 32 33 33 32 32 32 32 31 31 31 31
33 33 32 32 32 32 32 33 32 28 24 24 23 22 22 22 25 26 27 26 25 27 27 27 27 27 27 28 27 26 28 29 29 30 30 30 31 31 31 31 31 31 31 31
32 32 32 32 30 23 18 20 21 22 22 21 20 17 17 18 22 25 25 22 23 26 25 24 25 27 27 25 25 25 25 25 25 26 27 28 28 29 29 29 29 30 31 31
29 25 23 21 21 21 18 13 15 16 18 19 17 16 16 17 18 20 20 23 21 23 22 21 23 24 25 23 23 23 23 23 24 24 24 25 24 25 25 26 27 28 29 29
30 30 31 29 24 19 16 15 12 14 16 16 17 18 17 17 18 23 20 21 20 22 20 20 21 23 22 20 19 20 20 20 21 21 22 22 22 22 22 24 24 24 25 25
31 31 31 30 31 31 23 18 15 15 14 14 15 16 18 19 17 19 18 18 19 19 18 19 20 21 19 19 19 20 20 19 20 20 19 19 19 19 20 21 22 22 22 23
31 31 32 32 32 31 31 29 26 18 14 13 13 14 15 18 19 20 18 18 18 18 18 16 17 18 19 18 19 19 18 18 19 19 19 18 18 18 18 19 20 20 20 21
24 26 27 27 28 27 28 28 25 21 17 16 15 14 14 16 18 19 19 17 17 16 15 15 16 17 19 19 18 18 18 18 19 19 18 17 17 16 17 17 18 18 19 19

GFSNGP_sfc_30mbdewp_096.txt.gz
Dewpoint
30 31 32 31 33 33 32 31 25 25 25 25 23 25 25 27 28 28 30 35 36 35 37 40 41 43 44 44 43 42 42 41 41 41 41 39 38 37 37 36 36 36 37 36
20 28 31 29 32 33 33 34 31 31 29 29 28 28 29 30 30 29 28 30 35 36 37 38 40 42 43 43 43 42 42 41 40 39 38 38 37 37 37 37 36 36 36 36
16 24 29 24 28 32 32 34 34 31 32 32 32 32 32 31 30 29 29 29 30 34 37 38 39 41 42 42 41 41 40 40 39 39 38 38 38 37 37 36 36 36 36 36
15 27 20 27 28 32 32 31 32 33 33 33 32 33 33 32 30 28 28 29 30 31 32 38 40 41 42 41 40 40 39 39 39 38 38 38 37 37 36 36 35 35 35 35
20 22 26 22 23 29 29 27 31 30 31 33 32 30 29 33 33 33 34 34 35 35 35 34 39 41 41 40 39 39 39 38 38 38 38 37 37 36 35 35 34 35 36 36
21 21 16 23 25 25 28 22 33 30 29 30 29 26 27 35 34 35 37 37 37 36 36 35 38 40 40 39 39 39 38 38 39 38 38 37 36 35 35 35 34 34 35 36
19 21 23 31 29 27 18 21 33 35 36 35 33 32 34 34 35 36 36 36 37 39 38 39 39 40 39 39 39 39 39 38 38 38 37 37 35 35 35 35 34 34 34 34
23 22 18 35 31 26 30 30 31 35 37 36 35 34 33 35 35 35 35 37 39 38 38 39 40 39 39 39 39 39 38 38 38 38 37 36 36 35 35 34 34 33 33 33
28 23 35 35 34 31 34 33 34 33 39 38 35 34 34 35 35 35 36 37 38 38 37 38 39 39 38 38 38 38 38 37 37 37 36 36 35 34 34 34 33 32 32 32
28 27 25 34 37 37 35 33 36 37 34 37 35 36 36 35 35 34 35 36 37 37 37 37 38 38 38 38 38 38 37 36 36 36 36 35 35 35 34 33 32 31 31 30
24 22 28 29 26 28 33 34 35 37 37 34 38 38 36 36 36 34 34 35 36 37 36 36 38 37 37 37 37 37 36 36 36 36 36 35 35 34 34 33 33 31 31 30
17 23 22 22 24 24 30 33 35 37 37 37 39 39 39 36 35 34 34 34 34 35 35 35 36 37 37 37 37 36 36 36 36 36 36 35 34 34 35 35 34 34 34 31
24 28 28 28 28 26 32 34 34 37 37 37 38 39 38 36 35 36 35 34 35 35 35 35 35 35 36 37 37 36 36 36 36 36 35 35 34 33 32 33 35 35 35 35
33 34 31 28 26 26 26 35 36 36 38 36 38 40 39 38 37 36 36 36 36 35 34 34 34 34 34 38 37 37 37 37 36 36 35 34 34 33 33 32 32 32 35 36
32 32 32 31 30 30 31 37 38 37 37 35 37 39 37 35 35 33 33 36 36 35 36 35 34 33 34 35 35 35 36 36 37 36 35 34 33 33 32 32 32 32 33 34
32 31 29 29 27 29 32 35 37 38 36 35 34 34 35 33 32 30 31 33 33 33 33 33 32 33 34 34 34 34 34 36 36 35 35 34 34 33 32 32 31 31 31 32
31 29 29 30 32 33 34 36 36 38 36 33 32 31 32 31 30 30 30 33 32 32 32 30 31 33 33 34 34 35 34 34 35 35 34 34 33 33 32 32 32 32 32 33
35 35 33 34 34 35 36 35 34 34 34 33 32 32 32 31 31 31 30 31 29 28 28 28 30 31 31 33 34 34 34 34 34 34 34 33 33 33 33 32 32 32 32 32
35 35 35 34 34 34 35 34 34 34 34 35 33 31 30 28 28 30 29 29 29 27 26 27 29 28 28 29 32 32 32 32 33 33 33 34 34 33 32 32 31 32 32 32
35 35 35 34 34 33 33 33 33 33 32 33 32 31 29 27 27 29 26 25 25 26 27 28 27 27 27 28 29 29 30 31 31 31 31 32 32 31 32 32 32 31 31 31
33 33 33 32 32 32 32 32 32 30 30 29 30 28 26 23 25 27 26 25 25 27 27 27 27 27 27 27 27 26 26 27 27 27 28 29 29 29 29 29 29 29 29 30
32 32 32 32 31 29 19 18 20 24 25 22 19 18 19 17 23 24 24 24 23 26 24 24 25 26 26 25 24 24 24 24 24 23 23 23 23 24 24 24 25 25 27 28
30 26 23 20 19 20 20 16 13 15 17 18 17 16 15 16 17 22 22 23 21 23 21 21 23 24 24 22 22 22 22 22 22 22 22 22 22 22 21 21 23 24 24 24
29 29 29 30 30 27 21 17 15 13 14 15 16 17 17 16 17 21 20 22 22 22 20 20 21 23 21 19 19 20 20 19 19 19 19 19 19 19 19 19 19 20 21 22
31 31 31 31 30 31 32 31 28 25 17 15 15 15 17 18 16 17 21 18 19 20 17 19 20 21 19 18 18 19 19 18 19 19 18 19 18 17 17 17 17 19 19 19
30 30 30 31 31 31 31 30 29 29 28 27 20 15 15 16 18 20 18 18 17 18 19 17 16 18 19 18 18 18 18 18 18 18 19 18 16 16 15 16 16 17 17 17
24 25 25 25 25 26 26 26 27 26 24 22 19 17 15 15 17 19 19 17 17 17 16 16 16 17 17 18 18 18 18 18 18 18 17 16 15 15 15 15 15 15 15 15

GFSNGP_sfc_30mbdewp_099.txt.gz
Dewpoint
28 30 31 30 30 32 31 30 25 24 24 22 21 23 25 29 28 29 29 33 34 34 34 37 40 42 43 44 44 43 42 42 41 41 41 41 40 39 38 37 36 36 37 37
22 24 28 29 29 32 32 33 33 31 30 30 28 26 27 29 30 30 29 28 29 35 36 36 38 40 43 43 44 43 42 42 42 41 40 40 38 37 36 36 36 36 36 36
16 21 28 22 27 27 30 33 34 30 31 32 33 34 33 31 31 31 30 30 29 30 34 36 37 39 41 43 43 42 42 41 41 40 39 38 37 36 36 36 36 35 35 36
17 24 17 22 28 29 28 32 34 35 34 33 33 33 33 34 32 32 31 29 29 30 31 32 37 39 41 42 42 42 41 41 40 39 38 37 37 36 36 36 35 35 35 35
18 20 22 22 26 28 31 28 31 31 32 33 34 33 32 32 32 31 32 34 35 36 36 35 35 37 41 41 41 41 40 40 39 38 38 37 36 36 35 35 34 34 35 35
20 18 16 25 31 30 29 24 29 30 33 31 31 29 30 34 35 34 36 37 37 37 36 36 36 38 40 40 40 40 40 39 39 38 38 37 36 36 35 35 34 34 34 35
19 18 20 32 33 30 20 21 32 32 36 33 30 29 33 34 35 36 36 36 38 39 38 39 40 40 40 40 40 40 39 39 39 38 38 37 36 35 34 34 35 35 34 34
21 19 15 35 31 25 31 33 34 35 35 38 36 34 33 35 35 35 35 37 38 38 38 38 39 40 39 39 40 39 39 39 38 38 37 36 36 35 35 34 34 34 34 33
23 21 33 35 32 32 34 33 33 35 36 35 35 34 34 35 35 35 35 37 37 37 37 38 38 39 39 38 39 39 38 38 38 37 37 36 35 35 34 34 34 34 33 33
27 26 26 31 36 35 35 36 36 35 36 37 35 36 36 35 35 34 35 36 37 37 37 37 37 38 38 38 39 38 37 37 37 36 36 35 35 34 34 34 34 33 32 32
22 22 30 31 25 24 25 32 34 36 36 37 37 39 36 36 35 34 34 35 36 36 36 37 37 37 37 38 38 37 37 36 36 36 35 35 35 34 34 34 34 33 32 32
16 21 22 23 23 28 28 27 34 35 34 37 37 39 38 36 35 34 34 34 35 35 35 35 36 36 36 37 37 36 36 35 35 35 36 35 35 35 36 35 35 35 35 33
24 29 31 31 30 30 28 29 30 34 36 38 37 39 38 36 36 36 35 34 35 35 35 35 35 35 36 37 37 36 36 36 36 36 36 35 35 34 34 34 36 36 36 36
32 32 30 30 28 31 30 29 33 37 37 39 37 39 39 38 38 36 36 36 35 34 33 34 34 33 34 36 36 36 36 36 36 36 35 35 35 34 34 33 33 33 34 36
32 33 29 31 31 29 29 32 35 37 38 38 36 39 38 38 37 37 35 36 35 35 34 33 32 32 33 34 34 34 35 36 37 36 35 35 34 34 33 33 32 32 32 33
32 32 29 29 29 31 33 34 35 36 38 37 35 36 37 35 32 31 32 34 33 33 32 32 32 33 33 34 34 33 34 35 35 35 35 35 34 33 33 32 32 32 32 32
32 28 30 29 31 33 35 36 37 36 37 33 32 32 32 30 30 30 32 32 32 32 30 30 32 33 32 33 34 34 35 34 35 35 34 34 34 33 33 32 32 32 32 33
35 34 35 33 34 34 35 35 35 35 35 36 35 33 33 32 32 31 31 29 28 27 27 29 29 30 30 31 33 33 33 34 34 34 34 33 33 33 33 32 32 32 32 33
35 35 35 35 34 34 34 34 34 34 34 35 34 33 32 31 31 31 30 30 30 28 26 27 28 28 28 29 30 30 32 32 32 32 33 33 33 33 32 32 32 32 32 32
34 36 35 34 34 33 32 32 32 32 32 32 32 31 30 30 30 31 29 26 25 25 27 27 27 26 27 28 28 28 28 30 30 30 31 30 30 30 30 31 31 31 30 31
33 33 33 33 32 31 31 30 30 29 27 25 27 28 28 27 25 26 26 24 25 27 26 27 26 27 27 26 26 26 25 26 26 26 26 26 26 26 26 26 27 27 28 28
31 32 33 32 31 28 22 16 17 20 22 23 23 18 19 18 21 24 25 25 25 27 25 24 24 26 26 25 24 24 24 24 23 23 22 22 23 22 22 22 22 23 24 24
30 28 25 20 20 21 19 18 13 14 14 16 17 16 15 15 17 19 20 23 22 23 22 21 23 24 25 22 22 22 22 21 21 21 21 21 20 19 19 18 19 19 20 20
30 29 29 29 30 30 29 22 21 16 16 16 15 16 16 15 15 18 21 22 23 22 21 20 22 23 23 19 19 20 19 19 19 19 19 19 18 18 17 17 16 17 18 19
31 30 30 31 30 30 31 32 31 29 28 28 27 18 16 17 16 14 20 20 20 21 20 19 21 22 21 18 18 18 19 18 18 18 18 18 18 16 16 16 15 16 17 16
29 28 28 29 28 28 27 28 28 29 29 29 29 29 26 16 17 19 19 20 17 18 20 18 18 19 20 19 17 18 18 18 18 18 18 18 16 15 15 15 15 15 15 15
25 26 25 23 23 24 25 25 25 25 26 26 25 25 27 19 16 18 19 20 20 19 18 18 17 18 18 17 18 18 17 18 19 18 18 16 15 15 14 14 14 14 14 14

GFSNGP_sfc_30mbdewp_102.txt.gz
Dewpoint
23 26 29 29 27 28 29 31 27 24 24 24 23 24 26 30 29 30 30 31 33 33 33 35 37 40 42 43 44 43 43 42 41 41 40 40 39 40 40 39 37 37 37 36
19 22 23 23 27 29 30 31 31 32 29 29 29 25 26 28 30 30 31 30 29 29 34 35 36 38 41 43 43 43 42 42 41 41 40 40 39 38 37 36 36 36 36 36
17 19 25 22 25 28 28 32 32 29 32 34 35 34 33 31 31 32 32 32 31 30 30 33 36 38 39 42 43 43 42 42 41 41 40 39 38 37 36 35 35 35 35 36
18 22 14 24 28 29 28 29 31 34 34 35 36 36 35 34 33 33 33 32 30 30 31 33 34 37 39 41 42 42 42 41 41 40 39 38 37 36 35 35 35 35 35 35
17 18 19 23 29 25 30 29 31 30 31 34 34 34 33 33 33 32 31 33 34 36 36 36 36 35 38 40 41 42 42 41 40 40 39 37 36 35 35 35 34 34 34 35
18 17 15 26 32 33 29 27 32 33 34 35 32 31 32 32 34 34 36 36 36 36 37 37 37 37 37 38 40 40 41 41 40 39 38 37 36 35 35 35 34 34 35 34
18 17 16 27 33 32 23 21 33 35 35 35 35 32 34 35 35 36 36 36 38 38 38 38 39 39 38 38 39 40 40 40 39 39 38 37 35 35 35 35 34 34 34 34
20 18 13 33 30 25 30 32 33 34 35 36 36 36 34 35 35 35 35 36 37 37 37 38 38 40 39 39 40 40 40 39 39 38 37 36 36 35 34 34 34 34 34 34
21 20 28 34 31 32 34 34 34 35 35 36 36 36 36 35 35 35 35 36 37 37 37 37 37 39 39 38 39 39 39 39 38 37 36 36 36 35 34 34 34 34 34 34
27 26 27 27 36 31 26 29 33 35 36 36 36 37 38 35 35 35 34 36 37 36 36 36 36 37 37 38 39 39 38 37 37 36 36 36 35 35 34 34 34 34 34 33
23 22 28 32 24 26 28 29 29 33 34 34 36 37 38 36 35 34 34 35 36 36 36 36 36 36 37 38 38 37 37 37 36 36 36 35 35 34 34 34 35 34 34 33
16 21 22 23 25 30 30 30 29 30 33 35 36 37 37 38 36 34 34 34 34 35 35 35 36 36 36 37 37 37 36 36 36 36 35 35 35 35 36 36 36 36 36 34
22 29 30 30 31 31 29 30 30 28 29 35 37 38 38 37 36 37 35 34 35 35 35 35 34 35 36 37 37 36 36 36 36 36 35 35 35 35 34 35 37 37 37 37
31 31 28 29 27 30 30 30 31 34 36 37 38 38 39 38 38 37 37 35 34 34 34 34 33 33 34 35 36 36 36 37 36 36 35 35 35 34 34 34 33 33 35 37
31 32 32 30 29 30 31 33 34 35 37 38 38 37 39 37 37 37 37 36 35 34 33 32 32 33 34 34 34 34 35 36 36 36 35 35 35 34 34 34 33 33 33 34
30 32 29 28 29 31 34 35 35 36 37 37 34 35 37 36 33 32 34 34 33 33 32 32 32 32 33 33 34 33 33 35 35 34 35 35 34 34 33 33 33 33 32 33
31 29 27 29 29 31 34 35 35 35 36 34 33 33 32 30 30 31 32 32 32 31 29 31 32 32 32 32 33 33 34 34 36 35 34 34 34 33 33 33 32 32 32 33
34 34 34 34 33 33 34 35 34 34 34 35 35 34 33 33 33 32 32 30 29 28 27 29 29 29 29 30 31 32 33 33 33 33 33 33 33 33 33 32 32 32 32 33
34 35 35 35 34 34 34 33 33 33 33 34 34 32 31 31 31 31 31 31 30 29 27 27 28 27 27 29 29 29 31 32 32 32 32 33 32 32 32 31 31 31 31 31
33 36 35 35 34 33 32 33 33 32 32 32 32 32 31 30 30 31 30 29 28 25 27 27 26 26 27 27 28 27 27 29 30 30 31 30 30 29 29 29 29 29 29 29
33 34 33 33 32 31 30 27 27 26 26 24 23 25 26 27 25 25 26 25 25 26 26 27 26 26 26 26 25 25 25 25 25 25 25 25 25 25 24 24 24 25 26 26
32 32 33 32 30 27 23 18 15 15 18 19 20 19 17 17 18 22 25 25 26 27 25 24 24 25 26 25 24 24 23 23 23 22 22 22 22 22 21 20 19 21 21 21
29 29 26 21 21 25 27 19 16 13 15 14 14 15 15 15 16 16 14 22 23 25 23 22 22 25 26 22 22 22 22 22 22 21 21 20 19 18 18 18 18 17 17 17
30 29 29 28 28 30 30 30 26 25 20 18 21 18 16 15 15 16 18 22 24 22 22 20 21 24 25 20 20 20 20 19 19 19 19 19 18 17 16 16 15 15 16 18
30 30 30 30 30 30 31 31 30 30 30 29 29 29 29 20 16 15 17 20 22 23 22 22 22 23 23 19 18 18 19 19 18 18 19 18 18 17 16 15 15 15 17 16
29 28 28 28 28 27 26 26 25 26 26 26 27 28 29 29 24 20 20 21 21 21 21 20 18 20 21 19 19 18 18 18 19 18 18 18 17 16 15 15 15 14 15 14
25 26 25 23 22 23 24 24 24 24 24 24 24 24 24 25 27 27 27 24 22 23 23 22 19 19 18 18 18 18 18 18 19 18 18 17 16 15 15 14 14 14 14 14

GFSNGP_sfc_30mbdewp_105.txt.gz
Dewpoint
23 23 24 23 26 29 26 27 27 26 24 25 26 24 27 30 29 30 30 30 29 31 34 35 37 40 42 43 44 44 43 43 42 41 41 40 39 39 38 38 38 38 38 37
16 20 22 22 23 24 27 27 28 30 29 33 34 32 27 28 30 30 32 32 32 30 30 33 35 37 40 42 43 43 43 42 41 41 40 39 39 39 39 38 37 37 37 37
16 19 23 19 24 26 28 30 30 27 31 35 34 33 35 35 32 31 32 33 32 31 30 31 33 36 37 41 43 43 43 42 41 40 40 39 39 38 37 36 36 36 36 36
18 19 13 27 28 30 30 32 32 33 33 33 34 36 37 37 35 34 34 33 32 30 32 34 34 36 38 40 42 42 42 42 41 40 40 39 38 37 36 36 36 36 36 36
16 17 18 25 29 28 28 30 33 32 33 35 35 33 34 34 34 33 32 34 35 36 36 36 36 36 36 38 41 42 42 42 41 41 39 38 38 36 35 35 34 35 35 35
18 14 12 23 30 33 31 26 34 34 34 34 34 32 32 35 35 35 36 36 36 37 38 38 38 39 37 37 39 40 42 42 41 40 39 38 37 35 35 35 35 35 35 35
17 16 14 20 31 32 24 23 33 34 35 35 34 36 36 36 35 35 35 36 38 37 37 37 38 38 38 38 37 39 41 41 41 40 39 38 36 36 35 35 35 35 35 35
19 17 11 31 29 25 28 32 33 34 35 35 36 36 37 37 35 35 35 36 37 37 37 37 37 38 39 39 39 40 40 40 40 39 38 36 36 35 35 35 35 34 35 35
20 17 22 34 31 32 34 34 34 34 35 35 36 36 37 37 36 35 35 36 37 36 37 37 37 37 38 38 39 39 40 39 39 38 37 36 36 35 34 35 34 34 34 34
26 26 28 27 35 32 26 27 28 30 32 35 34 36 36 37 37 35 35 35 36 36 36 36 36 36 37 38 39 39 39 38 38 37 36 36 36 35 35 34 34 34 34 34
25 24 24 31 28 26 28 30 30 29 29 33 35 34 37 37 38 35 34 35 35 36 36 36 36 36 36 38 38 38 38 37 37 37 36 35 35 35 35 35 35 35 35 34
16 20 20 23 25 30 30 29 29 29 29 31 32 35 37 37 36 35 34 34 34 35 35 35 35 36 36 37 37 37 37 37 37 36 36 35 35 35 36 36 37 36 36 34
19 23 27 29 30 30 28 29 29 30 30 31 33 36 38 38 36 36 35 35 35 35 35 34 34 34 35 36 37 37 36 36 37 36 35 35 35 35 35 36 37 37 37 37
30 30 28 29 26 28 29 30 31 33 34 35 36 38 38 39 38 37 37 36 34 34 34 33 33 33 34 34 36 36 36 37 37 36 36 35 35 35 35 34 34 34 36 38
30 31 31 31 28 30 31 34 35 35 36 37 38 37 38 39 38 37 37 37 36 35 33 32 32 32 33 34 33 34 35 36 36 36 35 35 35 35 34 34 34 34 33 34
30 30 32 28 28 30 32 35 35 35 37 34 33 34 36 38 35 34 35 35 34 33 32 32 32 32 33 33 34 34 33 35 34 35 35 35 35 34 34 34 33 33 33 33
30 29 28 27 28 30 34 35 35 35 35 35 34 33 32 31 31 32 32 33 33 31 29 31 31 32 32 32 33 33 34 35 36 35 34 34 34 34 33 33 33 33 33 33
32 32 32 32 32 31 34 34 34 34 34 35 35 34 34 33 32 32 32 31 31 30 29 29 29 29 28 30 31 32 33 33 33 33 33 33 33 33 33 32 32 32 32 32
33 32 34 35 35 34 34 33 33 33 33 33 33 33 32 32 32 32 32 31 30 30 31 29 28 26 27 28 29 28 30 32 32 32 32 33 32 32 32 31 31 31 31 31
32 32 34 35 35 34 33 33 33 32 31 30 32 32 31 31 31 31 30 30 31 29 27 26 26 25 26 27 28 27 27 28 29 31 31 30 30 29 29 30 29 29 29 29
31 32 33 34 33 32 31 27 22 20 22 24 22 20 20 22 25 24 24 23 25 26 27 27 26 26 26 26 25 25 26 26 26 26 25 26 26 25 24 24 24 24 24 24
33 33 33 32 31 28 22 20 18 14 13 14 16 17 16 14 15 18 22 22 26 27 27 26 24 25 26 26 24 24 23 23 23 22 21 22 22 21 20 19 19 20 20 20
30 29 27 22 20 23 28 28 20 15 16 18 19 18 16 15 15 14 11 19 25 25 27 25 25 25 27 23 22 23 23 22 22 22 20 20 19 18 18 17 18 17 16 16
29 29 28 28 27 27 28 30 30 30 30 29 26 24 25 25 22 18 17 20 23 24 23 22 22 23 25 22 20 20 20 20 19 20 19 19 18 18 17 16 15 15 16 17
29 29 29 29 29 29 29 28 27 26 27 27 28 28 29 28 26 22 23 23 21 23 23 23 24 23 23 22 19 19 19 19 18 19 18 18 18 18 17 16 15 15 16 17
29 28 28 28 27 27 26 25 24 24 24 24 25 25 26 27 28 28 25 26 26 25 25 24 23 22 22 22 19 18 19 20 20 20 19 18 18 17 16 15 15 15 15 14
27 27 25 24 23 23 23 23 23 22 23 23 23 24 24 24 24 25 27 26 26 25 25 25 25 25 24 22 21 19 18 18 19 18 18 18 17 16 15 15 15 14 14 14

GFSNGP_sfc_30mbdewp_108.txt.gz
Dewpoint
19 19 20 21 20 20 25 24 24 28 30 28 29 30 26 29 30 31 32 32 31 33 33 36 38 41 43 44 44 44 44 44 44 45 45 44 44 44 43 42 40 40 39 39
18 20 24 19 19 22 23 23 25 25 27 29 29 33 32 30 30 31 32 33 33 31 31 35 36 38 42 43 44 44 44 44 43 43 42 42 42 41 40 40 39 39 39 38
18 21 25 21 25 26 28 29 29 26 29 33 33 34 34 34 35 35 35 34 34 32 31 32 33 37 38 41 44 44 44 43 42 42 41 41 40 40 40 40 40 39 38 38
19 20 16 26 29 31 30 32 33 33 34 35 35 35 34 35 36 35 35 34 33 32 34 35 36 35 37 40 42 44 44 43 43 42 41 40 40 40 40 40 39 39 38 39
17 15 18 25 29 28 27 30 33 32 34 35 36 34 34 36 35 33 34 35 36 36 36 37 37 36 36 37 40 42 43 43 43 42 41 40 40 40 40 39 39 39 38 38
20 13 9 25 29 33 32 24 34 35 34 34 35 32 34 37 36 36 36 36 36 37 37 37 38 38 38 37 37 39 41 43 43 42 41 40 41 40 39 38 36 37 37 38
16 15 12 19 28 32 25 24 33 34 35 35 34 35 36 38 37 37 37 37 38 37 37 38 38 39 39 39 38 38 41 43 43 42 42 41 39 39 37 37 37 37 36 36
18 17 11 24 30 25 29 33 33 34 34 34 35 36 37 37 38 36 36 37 37 37 38 38 38 38 39 40 41 40 40 42 42 42 41 40 39 38 37 37 37 36 36 36
19 15 23 33 31 33 34 34 31 30 30 32 33 32 35 37 38 37 35 36 37 37 37 38 37 38 38 40 39 40 40 41 42 41 40 39 38 37 36 37 36 36 36 36
26 25 25 28 33 34 29 27 28 29 29 28 30 32 32 37 38 38 35 35 36 37 37 37 37 37 38 39 39 40 40 40 40 39 38 38 38 37 37 36 36 35 35 35
26 26 26 27 30 30 27 29 29 29 29 28 28 31 32 34 37 38 35 35 36 36 36 36 36 37 37 38 39 39 39 39 39 38 37 37 37 37 36 36 36 35 36 36
16 22 20 26 26 29 29 28 28 29 29 30 30 29 30 34 37 36 35 35 35 35 35 35 35 36 36 37 38 38 38 37 37 37 36 36 35 35 37 37 37 38 38 37
19 23 24 28 30 30 27 28 29 30 31 32 33 33 34 36 38 37 35 36 36 35 35 34 34 35 35 36 38 37 37 37 37 37 36 36 36 35 35 37 38 38 37 36
26 29 28 29 26 28 29 30 32 34 35 36 36 36 37 38 39 38 37 36 35 35 34 34 34 33 34 34 36 37 38 38 38 37 36 36 36 36 35 35 34 35 38 38
29 30 29 29 29 29 31 33 34 35 36 36 35 35 37 38 39 37 37 37 36 35 35 34 33 33 33 34 34 34 35 36 37 37 36 36 36 35 35 35 34 34 34 36
29 30 30 30 28 29 31 32 35 35 36 35 34 34 34 35 36 36 36 36 36 35 34 33 33 33 33 34 34 35 34 35 35 36 36 36 35 35 34 34 34 34 33 33
28 29 31 28 28 29 32 33 35 35 35 35 35 35 33 32 32 32 33 33 33 32 31 32 32 31 32 32 32 34 34 35 36 35 35 35 35 34 34 34 33 33 33 34
30 30 29 28 28 29 31 34 35 35 34 34 35 35 34 34 33 33 33 32 32 31 31 31 31 30 28 30 30 31 32 33 34 34 34 34 34 34 33 33 33 32 32 32
32 32 33 32 33 31 31 32 32 34 33 33 33 33 33 32 32 32 32 31 31 31 32 31 31 30 28 28 29 28 29 31 32 32 33 34 33 32 32 32 32 32 32 31
31 31 32 33 33 34 32 33 33 32 31 28 27 30 30 30 31 31 31 31 32 32 32 30 29 27 26 27 28 27 27 28 30 32 32 31 31 31 31 31 31 30 30 30
31 32 33 33 34 34 33 29 22 18 17 21 21 19 18 18 19 22 22 20 21 27 28 27 27 25 26 26 26 26 27 26 27 28 29 29 29 28 27 27 27 27 26 26
31 31 31 33 31 31 24 21 19 17 14 15 16 17 16 16 15 15 18 18 21 27 27 27 26 26 26 27 26 25 25 25 25 25 25 25 25 24 23 22 22 22 22 22
33 32 30 28 23 21 27 29 27 19 19 22 24 24 23 23 21 19 18 18 23 25 26 27 26 26 28 28 25 25 24 23 23 22 22 22 22 21 20 19 19 19 19 18
30 29 28 27 26 27 27 29 31 31 30 31 30 29 27 28 28 27 25 21 20 23 24 25 24 26 27 27 24 23 23 22 22 22 21 21 20 20 19 19 18 17 17 18
29 30 29 29 29 28 29 28 27 26 25 25 25 26 26 27 28 28 24 27 28 27 24 25 25 25 24 25 24 21 21 21 21 21 20 20 20 20 19 18 17 17 17 18
29 28 28 28 27 27 27 25 23 23 23 23 23 24 25 25 25 26 27 27 27 27 27 27 27 25 24 24 22 20 19 19 20 20 20 20 20 20 19 18 17 17 18 17
28 28 27 26 25 25 24 23 21 21 22 22 22 23 25 24 24 25 24 24 25 26 26 27 27 27 27 26 24 23 20 20 20 21 22 22 20 20 19 17 17 17 17 16

GFSNGP_sfc_30mbdewp_111.txt.gz
Dewpoint
18 19 19 18 19 18 21 24 23 23 24 29 29 29 31 29 31 32 32 32 31 32 33 36 40 43 44 45 46 47 47 47 48 49 49 50 50 48 46 45 43 41 40 41
20 21 21 17 16 17 20 22 23 25 24 28 32 33 33 32 31 33 33 34 33 32 31 33 35 39 43 44 44 44 44 44 45 45 45 46 46 46 44 42 41 40 40 40
17 21 25 23 23 25 27 28 29 25 27 33 32 32 33 34 35 34 34 34 34 32 32 33 34 36 38 41 44 44 44 44 43 43 43 43 43 42 42 41 40 40 40 40
20 22 18 25 29 30 27 30 32 32 34 36 34 35 34 34 34 33 34 34 34 35 35 36 36 35 36 39 42 44 44 44 43 43 42 42 41 41 41 41 41 41 40 40
19 12 17 23 26 27 26 28 35 34 34 34 35 34 35 37 37 35 35 35 35 36 36 36 37 37 37 36 38 41 43 44 44 43 42 41 41 41 42 42 41 41 40 40
20 15 7 22 29 31 31 24 34 35 34 34 34 31 35 37 38 37 38 38 37 37 37 37 38 38 38 37 36 36 39 43 44 43 42 42 42 42 42 40 39 40 39 39
15 15 10 24 27 31 23 26 33 34 34 35 34 35 37 38 38 38 37 39 39 38 37 38 39 39 39 39 38 39 39 41 44 44 43 43 43 42 40 39 38 38 38 38
15 16 12 26 29 26 29 32 32 33 33 33 33 33 35 36 38 39 36 37 38 38 38 39 39 39 39 40 41 41 41 41 43 44 43 43 41 40 39 37 37 37 36 36
17 16 25 27 30 31 32 31 32 30 30 28 28 29 30 30 36 38 36 36 37 37 38 39 38 38 38 39 40 40 40 40 42 43 42 42 41 39 38 37 37 37 36 36
24 22 23 29 32 32 33 29 28 28 27 27 27 27 28 29 32 38 38 36 36 37 37 37 37 37 38 38 39 40 40 40 41 42 41 41 40 39 38 37 37 36 36 36
22 23 26 27 27 31 29 29 28 28 28 28 28 28 27 28 30 37 38 35 36 36 36 36 36 37 37 38 39 40 40 40 40 40 40 39 39 38 38 37 37 37 36 37
12 21 22 25 28 28 28 27 27 27 27 27 29 30 29 28 30 37 36 36 35 35 36 35 36 36 36 37 38 39 39 39 39 38 37 37 37 36 37 37 38 38 38 37
19 22 23 25 27 29 27 26 27 28 30 31 33 33 32 31 33 39 38 36 36 36 36 35 35 35 35 35 37 38 38 38 38 37 37 36 36 36 35 37 39 39 39 39
21 26 27 28 26 27 27 28 30 33 34 35 37 34 33 35 36 39 37 37 36 35 34 34 34 33 34 35 35 37 38 38 38 38 37 36 36 36 36 35 35 36 39 38
25 26 27 28 28 27 30 31 33 33 35 35 35 34 35 36 38 39 38 37 37 36 35 35 34 34 34 34 35 35 35 36 37 38 38 37 36 36 36 35 35 35 35 37
27 28 29 29 27 28 29 31 32 33 35 36 35 35 34 33 35 36 36 36 36 35 35 34 34 34 34 34 34 34 35 35 36 36 37 36 36 35 35 35 35 35 34 34
27 28 29 29 28 28 29 31 32 33 35 35 35 35 35 33 32 32 33 33 33 33 31 31 31 32 32 30 30 32 32 34 35 36 35 35 35 35 35 34 34 34 34 34
28 28 30 29 28 28 30 31 34 34 34 34 34 35 34 34 33 34 34 33 33 32 32 32 32 32 31 30 30 29 30 31 33 34 34 34 34 34 34 34 34 33 33 34
29 29 29 28 28 29 30 31 32 32 32 32 32 32 33 33 33 33 32 31 31 31 32 33 32 31 31 30 29 29 28 28 31 32 33 34 34 33 32 32 32 32 32 32
31 31 31 31 32 32 31 32 32 31 31 29 25 24 25 24 25 26 28 27 28 31 33 32 31 30 28 27 28 29 29 28 28 30 32 32 32 31 31 32 31 31 31 31
31 31 31 33 33 34 33 32 30 24 17 17 17 15 15 16 15 15 16 15 17 25 28 28 27 27 26 26 26 26 26 27 27 28 30 31 30 30 30 30 30 30 29 29
30 31 32 31 33 32 30 25 20 18 15 16 19 21 22 24 24 21 19 17 18 22 26 27 27 27 26 27 27 26 25 26 27 27 27 27 28 27 26 26 26 26 25 24
31 30 31 30 30 29 24 26 28 22 21 23 25 27 27 27 26 26 27 23 21 22 25 26 27 27 27 27 27 25 25 25 25 25 25 25 25 24 23 22 22 21 21 21
32 32 31 28 25 25 25 26 29 31 30 30 29 29 29 27 27 29 28 28 26 21 22 24 25 26 26 26 27 25 24 24 25 25 24 22 23 22 21 20 20 20 19 19
31 30 30 29 29 28 29 30 28 27 25 24 24 25 26 26 26 27 27 27 27 28 28 27 26 26 25 25 26 26 24 24 24 24 23 23 22 21 21 20 19 19 18 19
30 29 29 29 28 28 28 27 24 22 22 21 21 23 24 25 25 25 25 26 27 27 27 27 27 27 27 26 26 25 23 22 22 22 21 21 22 21 21 20 19 19 19 20
29 29 28 27 27 26 25 23 21 19 21 20 20 21 23 21 20 21 21 21 22 23 25 26 26 27 27 27 27 27 26 22 20 21 23 23 22 22 21 20 19 19 19 18

GFSNGP_sfc_30mbdewp_114.txt.gz
Dewpoint
20 19 19 19 18 18 19 21 22 23 22 28 30 32 32 31 32 34 34 34 32 32 35 39 42 44 45 46 48 50 51 52 52 51 52 52 51 50 48 45 44 42 42 42
20 21 22 18 16 16 19 22 24 25 26 33 32 32 33 34 34 35 34 34 33 33 33 35 36 41 44 44 45 46 46 48 49 49 49 49 48 46 45 43 42 41 41 41
18 21 24 22 23 24 26 26 27 24 30 35 34 32 33 34 34 34 34 35 35 35 36 36 35 36 39 43 44 44 44 44 45 45 45 46 46 44 43 41 41 41 41 41
21 21 17 25 29 30 27 28 31 32 33 34 33 35 36 37 36 35 35 35 36 36 36 37 37 37 37 40 43 44 44 43 43 43 43 43 43 42 42 41 41 41 41 41
19 17 16 22 24 28 26 26 32 32 34 34 35 36 36 37 38 37 38 38 37 37 37 37 38 38 38 38 37 42 44 44 43 43 42 42 41 41 41 41 41 40 40 40
21 15 8 25 30 31 31 25 34 34 33 34 34 32 35 37 38 39 37 39 39 38 38 38 39 39 39 39 38 37 38 42 44 43 42 42 41 42 42 41 40 40 40 40
20 16 14 27 30 31 23 24 34 35 34 33 33 34 36 37 38 39 37 37 38 39 38 39 39 39 39 40 41 42 42 40 44 44 43 42 42 42 40 40 40 39 39 39
16 15 9 27 30 27 29 32 33 34 33 33 33 32 31 32 35 37 38 36 37 37 38 39 39 38 38 39 40 40 41 41 41 44 44 43 42 40 39 39 38 38 37 37
16 18 24 30 30 32 32 31 32 32 31 29 27 27 28 30 30 36 38 36 37 37 37 38 38 38 37 38 39 39 40 40 41 43 43 42 40 39 38 37 37 37 36 36
19 20 24 27 31 32 33 31 29 28 28 28 27 28 28 28 29 34 38 36 36 36 36 37 37 37 37 37 38 39 40 40 41 42 42 41 40 39 38 37 37 37 36 36
21 22 25 26 28 31 30 29 29 28 28 28 28 28 29 28 29 31 38 36 36 36 36 36 36 36 36 37 38 38 40 40 40 41 41 40 39 39 38 38 38 37 37 37
17 21 23 26 27 30 29 28 28 27 27 27 29 30 29 30 29 32 37 36 36 36 36 36 36 35 35 35 37 38 38 39 39 39 38 38 38 37 38 38 38 38 38 37
18 23 24 27 28 28 28 27 27 27 29 31 33 35 35 30 32 38 39 36 36 36 36 35 35 34 34 35 35 37 38 38 38 38 37 37 37 36 36 37 39 39 39 38
23 26 26 27 28 28 26 28 30 33 33 33 36 35 35 33 34 38 39 37 36 35 34 34 34 33 34 34 35 35 35 38 38 38 38 37 37 36 36 35 35 36 39 39
23 26 27 28 27 27 29 30 32 32 32 35 35 34 34 34 36 38 38 37 37 36 36 35 35 35 35 35 35 35 35 35 35 37 37 37 36 36 36 35 35 35 36 38
23 28 28 27 27 28 29 31 32 31 32 33 35 35 35 33 34 35 35 35 36 35 35 34 34 34 33 33 32 34 34 35 35 35 35 36 36 35 35 35 35 35 35 35
26 27 29 29 27 28 29 30 31 32 32 32 33 35 36 35 34 32 33 33 33 33 32 31 31 32 33 30 30 30 30 31 32 34 34 35 35 35 35 34 34 34 34 35
28 29 30 30 29 28 30 31 32 33 33 32 33 33 33 33 33 33 33 33 33 33 33 32 32 33 32 31 31 30 29 29 31 32 33 33 33 34 34 34 34 33 34 34
28 29 30 29 28 28 30 31 32 32 32 31 31 30 30 31 31 31 31 30 30 29 31 33 32 32 31 32 30 30 29 29 29 31 32 33 33 33 33 32 32 33 33 33
29 30 28 30 31 31 30 31 32 32 31 31 27 23 22 21 20 19 21 22 23 25 30 31 31 30 30 28 28 28 28 28 29 30 31 31 31 31 31 32 32 31 31 31
31 31 31 31 31 32 32 32 31 31 28 22 18 16 16 18 19 17 18 19 18 24 25 28 29 27 27 26 26 26 26 26 27 27 29 31 31 31 30 30 30 30 30 30
31 31 32 32 33 34 33 30 25 19 16 14 16 21 23 25 26 27 26 25 22 21 24 25 27 27 27 27 26 26 25 25 25 27 27 27 28 29 28 28 28 28 27 27
31 32 32 31 30 30 27 24 23 20 18 19 23 25 28 28 28 27 26 27 25 26 26 23 24 27 28 27 26 26 25 24 24 25 25 25 25 25 25 24 23 23 23 22
30 30 30 30 30 25 23 25 27 29 29 30 29 29 28 27 26 27 28 29 28 27 27 28 29 27 26 26 26 26 25 24 24 24 24 24 24 24 23 22 22 22 21 21
31 30 30 27 25 26 27 29 29 28 27 25 24 24 25 26 25 26 26 26 27 27 27 27 27 28 27 27 25 26 26 25 24 24 24 24 23 23 22 21 21 20 19 18
30 29 28 29 29 28 28 28 27 24 23 21 21 22 23 24 24 24 23 24 24 25 25 26 25 25 25 26 27 27 27 26 25 24 24 23 23 23 22 22 21 20 20 19
29 29 28 28 27 27 26 25 23 20 21 20 19 21 23 19 18 19 18 17 18 18 19 20 22 24 23 24 24 26 27 26 26 24 23 22 22 22 22 21 21 21 21 21

GFSNGP_sfc_30mbdewp_120.txt.gz
Dewpoint
19 21 20 20 18 17 17 23 20 21 25 30 33 33 34 34 34 34 35 36 36 36 36 36 37 41 44 45 47 51 53 53 53 56 56 56 55 53 53 53 54 54 54 54
18 23 24 18 18 17 18 21 22 25 26 33 34 35 35 35 35 35 35 36 36 36 36 37 37 37 39 44 44 47 49 49 50 52 52 52 51 50 49 47 46 47 48 48
12 21 20 11 20 19 26 26 26 23 26 33 32 34 35 36 36 36 37 37 37 37 37 37 38 38 38 39 44 44 44 45 47 49 50 49 48 48 46 45 44 45 45 45
14 18 -11 6 28 28 28 27 29 30 31 33 34 36 36 37 37 37 36 37 38 38 37 38 39 39 39 39 38 43 44 43 44 45 46 46 46 46 45 44 44 43 43 42
9 12 13 20 27 28 27 19 28 29 31 33 34 36 35 37 38 38 38 37 38 39 38 38 38 39 40 40 41 41 41 41 43 43 43 44 44 44 43 42 42 42 42 41
19 3 -13 12 25 30 28 15 30 31 31 33 34 31 32 36 37 37 38 37 37 38 38 38 38 38 39 39 38 39 39 40 41 43 43 42 42 42 41 41 41 41 42 41
15 13 12 16 30 30 12 -4 32 32 32 33 31 32 34 36 34 35 37 37 37 37 37 38 38 38 37 37 37 38 39 40 40 41 43 43 42 41 41 41 40 40 40 40
17 14 -6 29 30 19 17 33 34 34 34 34 33 33 31 30 30 33 34 37 37 36 37 37 37 37 36 36 37 38 39 39 40 40 41 43 42 40 40 40 40 39 39 39
13 7 14 31 24 29 32 32 34 34 34 34 33 32 28 28 28 29 33 37 36 36 36 36 36 36 35 35 37 38 38 39 40 40 41 42 41 40 39 39 39 38 38 38
15 11 18 23 30 31 32 31 32 34 33 31 29 28 28 28 28 28 29 34 36 36 35 35 35 35 35 35 36 38 38 39 40 40 42 42 41 40 39 38 38 38 37 37
19 18 20 22 26 31 32 31 30 29 28 28 28 28 28 29 29 29 30 32 36 36 35 35 35 35 34 35 36 37 38 38 38 39 39 41 41 40 40 39 39 38 38 38
7 13 12 13 23 31 32 30 29 28 28 28 27 27 29 29 29 29 30 33 36 36 36 36 35 34 34 35 35 35 37 38 38 38 38 38 39 39 40 40 40 40 39 39
11 17 20 25 29 31 31 30 29 28 28 27 29 31 32 34 29 31 36 38 37 36 36 36 34 34 34 35 35 35 35 36 36 37 38 38 37 37 36 37 38 39 39 40
22 25 24 28 26 30 30 29 30 28 28 30 31 34 35 33 35 35 36 37 37 36 35 35 35 35 35 35 35 35 35 35 35 35 35 36 36 36 36 35 35 36 38 40
19 23 22 26 28 29 28 28 28 28 30 32 35 34 34 32 31 34 36 37 37 37 37 36 36 35 35 34 33 32 33 34 35 35 35 36 35 35 35 35 34 34 35 36
19 23 25 25 27 27 27 29 28 29 32 33 33 34 35 35 33 34 35 34 34 34 34 34 34 34 33 33 32 31 31 31 32 32 33 32 33 33 33 33 33 34 34 34
21 24 26 25 26 27 27 28 29 30 31 31 32 33 33 33 33 33 34 35 34 34 34 34 33 33 33 33 33 32 31 30 30 29 30 31 31 30 31 32 32 33 33 35
21 22 25 25 26 27 28 29 30 31 31 31 32 32 32 31 31 31 31 31 31 30 29 30 31 32 32 32 31 31 30 29 28 28 29 29 29 31 31 31 31 32 33 34
23 24 26 27 27 27 28 29 31 32 32 32 32 31 31 31 31 30 30 28 26 22 19 28 31 30 29 29 30 30 29 27 26 26 27 27 27 27 28 29 30 31 31 32
25 26 27 28 28 28 29 30 32 32 32 31 31 31 29 28 27 25 18 16 20 22 21 24 26 27 28 29 30 29 27 26 25 25 25 26 26 27 26 27 28 30 31 31
26 28 28 29 28 29 30 32 32 31 31 31 30 29 24 19 17 18 22 24 26 26 24 24 24 25 25 27 28 27 26 25 25 24 24 24 25 26 26 27 28 29 29 30
29 29 29 29 29 30 31 31 31 30 30 30 29 23 16 18 24 25 27 27 27 27 27 27 26 26 28 29 27 27 26 25 25 25 24 23 23 24 24 25 26 27 28 28
30 30 30 30 29 30 30 30 30 30 30 27 20 15 19 24 26 27 24 26 28 28 28 27 27 26 27 27 26 26 25 25 25 24 24 24 23 22 23 23 24 25 24 25
30 30 30 30 31 30 29 28 28 26 23 18 17 21 26 28 25 25 26 26 26 27 26 26 27 26 25 24 24 24 25 25 25 25 24 26 25 23 22 22 23 23 22 22
31 30 30 30 30 29 29 26 24 22 23 26 28 27 26 25 23 24 24 22 22 21 19 19 20 21 22 22 22 21 21 22 24 25 24 24 24 24 23 22 22 22 22 21
30 30 30 30 30 28 27 25 25 27 27 25 23 23 24 24 22 20 18 16 15 16 16 17 18 19 20 20 21 21 20 19 19 20 23 24 24 24 23 23 22 22 23 22
30 30 29 28 28 27 26 26 26 27 26 21 20 22 22 17 17 14 15 14 14 14 15 16 17 18 18 19 19 18 18 18 19 20 21 24 24 23 23 23 23 23 23 24

GFSNGP_sfc_30mbdewp_123.txt.gz
Dewpoint
19 20 21 20 19 17 19 23 18 20 24 30 33 33 34 34 35 35 35 36 36 36 37 37 37 38 39 44 47 50 52 54 55 56 56 56 56 55 55 55 55 56 57 57
16 21 23 21 19 18 18 21 22 24 24 32 34 35 35 35 36 36 37 37 37 37 37 37 38 38 38 40 44 46 48 50 52 54 54 53 52 51 52 52 51 51 52 53
3 20 17 4 15 18 23 25 25 22 24 33 32 34 35 36 36 36 36 37 38 38 37 38 38 39 39 39 42 43 43 44 46 49 50 49 49 48 48 47 46 47 47 47
10 14 -23 -3 25 27 26 27 27 28 30 32 34 36 36 37 37 37 37 36 37 38 38 38 38 39 40 40 40 40 40 41 43 44 45 46 46 46 46 45 45 45 45 44
5 3 6 14 25 26 24 17 26 28 29 33 34 36 35 37 38 38 38 37 37 37 38 38 37 38 39 38 38 39 39 39 40 42 43 43 43 44 43 43 43 43 43 43
18 -6 -24 6 24 30 25 3 24 29 29 32 33 29 30 36 36 37 38 37 37 37 38 37 37 37 37 37 37 38 38 39 40 40 41 42 42 42 42 41 42 42 42 42
13 5 7 12 29 28 2 -14 29 31 30 32 31 31 33 36 34 34 36 37 37 36 37 37 37 37 36 36 37 38 38 39 40 40 40 41 42 41 40 40 40 40 41 41
16 11 -13 26 30 16 11 30 32 32 32 32 33 33 33 31 30 31 33 36 37 36 36 36 36 36 35 35 36 38 38 39 39 40 40 41 41 40 39 39 39 39 39 39
12 2 10 30 26 28 27 30 33 33 33 34 33 33 32 29 28 28 29 33 36 36 36 35 36 35 35 35 36 38 38 38 39 40 41 41 40 40 39 39 39 39 38 38
13 10 15 19 26 31 30 31 32 33 33 34 33 32 30 28 28 28 29 29 35 36 35 35 35 35 34 35 35 37 37 38 38 39 40 41 41 40 40 39 39 39 38 38
18 17 17 18 21 22 30 32 31 32 33 33 32 29 28 28 28 29 29 30 33 35 35 35 35 35 34 34 35 35 37 37 38 39 38 38 39 40 40 40 39 39 39 39
7 11 10 8 16 22 27 30 31 30 29 29 28 28 28 28 29 29 29 30 33 36 36 36 35 35 34 35 35 34 34 35 36 38 38 38 38 38 39 40 40 40 40 40
10 13 15 18 25 28 28 31 31 30 29 28 28 28 29 30 32 31 31 36 37 36 36 36 34 34 34 35 35 35 35 35 35 35 35 35 36 36 35 36 37 38 39 40
20 22 19 24 18 25 29 30 32 29 29 28 28 31 32 34 33 34 34 36 37 37 36 35 35 35 36 35 34 34 34 34 35 35 35 35 35 35 35 34 34 35 36 37
17 21 18 22 25 27 30 30 30 28 28 29 31 32 34 33 31 32 35 36 36 36 37 36 36 36 35 34 33 32 32 32 33 33 34 34 33 32 33 33 33 33 34 36
16 18 21 22 23 27 29 29 29 28 29 30 32 34 34 34 33 33 34 34 33 33 33 34 33 34 33 33 33 33 32 32 32 31 30 30 31 31 30 30 30 31 32 33
18 18 22 22 24 26 28 29 29 28 29 31 33 34 34 34 33 33 33 34 34 33 33 33 33 32 33 33 33 32 30 30 30 28 27 28 28 27 27 28 29 30 32 33
19 18 21 21 23 25 27 28 29 29 29 32 32 33 33 32 32 32 32 31 31 30 28 27 28 31 30 31 30 29 29 29 28 26 26 26 26 26 26 27 28 28 29 31
22 22 22 23 24 26 27 28 29 29 31 32 32 32 32 32 31 31 31 30 27 23 19 22 28 30 29 28 29 28 28 28 27 25 25 25 25 25 24 25 25 25 26 27
23 23 23 25 26 27 27 29 30 30 32 32 31 31 31 30 30 29 28 24 17 21 23 23 25 24 25 26 28 28 27 27 25 25 24 25 24 24 25 25 26 26 26 26
23 25 26 27 27 28 28 30 30 31 31 31 31 30 30 29 26 22 16 20 25 26 26 24 25 26 26 27 27 27 27 26 26 25 25 24 24 23 23 24 24 25 26 27
25 27 28 28 28 28 30 31 31 31 31 30 30 30 28 23 17 19 23 25 27 27 28 27 26 26 27 27 27 26 25 25 25 25 24 23 23 23 22 22 22 23 25 25
27 28 29 29 28 29 30 31 31 31 30 30 29 28 23 17 22 25 26 26 27 27 27 26 27 27 26 25 24 24 24 24 24 25 23 23 23 22 22 22 22 22 23 23
29 29 29 30 30 29 29 29 30 30 29 29 28 24 18 24 27 27 26 27 26 26 25 24 23 22 23 23 22 22 22 22 22 22 22 23 24 23 22 22 22 22 22 22
29 29 29 29 29 29 29 28 28 27 26 23 19 21 25 27 24 23 23 22 21 19 17 17 19 20 20 19 20 20 21 20 20 20 22 24 23 23 23 23 22 22 22 22
29 29 30 30 30 29 28 26 26 23 23 24 26 25 25 24 24 21 18 17 15 16 14 16 17 18 19 18 19 19 18 17 17 17 19 21 21 23 23 23 22 22 22 22
30 30 29 29 29 28 27 27 26 24 26 25 23 23 23 19 17 15 15 13 13 14 14 15 16 17 16 17 16 16 15 14 13 14 15 15 17 20 22 23 23 23 22 22

GFSNGP_sfc_30mbdewp_126.txt.gz
Dewpoint
18 19 22 20 19 18 18 22 17 18 22 26 31 32 33 34 36 36 37 38 38 37 37 37 38 39 39 42 44 48 51 52 53 54 55 55 54 54 55 55 56 56 57 57
16 21 22 20 21 20 18 20 22 22 24 28 33 34 34 34 35 36 36 36 37 37 37 37 38 39 40 40 42 43 44 45 48 51 51 50 50 50 51 51 52 52 53 53
-0 18 14 2 10 19 20 23 23 20 22 31 32 33 34 35 36 36 36 36 36 37 37 37 37 38 39 39 40 40 40 41 43 44 46 47 48 48 48 47 46 47 48 49
6 7 -26 -7 23 23 22 24 26 26 26 31 32 35 36 37 36 36 37 36 36 36 37 37 37 38 38 38 38 39 39 39 40 42 43 43 44 45 45 45 45 45 45 45
6 1 -2 13 20 25 20 8 24 27 28 31 34 36 34 36 37 37 37 37 36 37 37 37 37 37 37 37 38 38 38 39 40 40 41 42 41 42 43 42 43 43 43 44
15 -9 -29 -2 23 30 26 -5 17 27 28 31 33 29 27 35 37 36 37 37 36 36 37 36 36 36 36 36 37 37 38 39 39 40 40 40 41 41 41 41 41 41 42 42
11 1 1 7 27 28 -0 -18 24 28 28 31 31 30 32 36 35 35 35 37 37 36 37 36 36 36 35 35 36 37 38 39 39 40 40 41 41 40 40 40 40 39 39 40
14 8 -16 18 29 13 3 19 28 31 30 31 32 32 33 33 33 31 33 34 37 36 36 36 36 35 35 34 35 37 38 38 39 39 40 40 39 39 39 39 39 39 39 39
8 -1 4 28 20 27 20 25 30 31 31 32 32 33 33 31 30 29 29 30 35 35 35 35 35 35 34 34 35 37 37 37 38 38 39 40 40 39 39 39 39 39 38 38
13 9 13 16 23 30 29 29 30 32 31 33 32 33 32 31 28 28 28 29 30 35 35 35 35 35 34 34 34 35 36 36 37 38 39 38 39 39 39 39 39 39 39 39
17 15 16 16 18 17 20 29 30 32 33 32 33 32 32 29 28 28 29 29 30 33 35 35 35 35 34 34 34 34 34 35 35 36 37 37 37 38 38 38 40 39 39 39
7 9 8 7 10 17 18 22 28 30 31 32 33 32 30 28 28 28 28 29 30 34 35 35 35 35 34 34 35 34 34 35 35 35 35 35 35 35 36 37 38 38 39 39
10 11 11 11 19 21 20 21 27 30 31 30 30 29 28 28 28 30 31 30 34 36 35 35 35 34 34 35 35 35 34 34 34 35 34 34 35 35 34 35 36 37 37 37
17 17 15 18 14 19 23 25 30 31 30 30 29 28 28 29 32 33 31 34 35 36 36 35 35 35 35 35 35 34 33 34 34 34 34 33 33 33 33 32 32 32 34 35
17 18 16 17 21 21 26 28 29 30 30 29 28 29 30 31 32 33 34 35 36 36 36 37 36 36 35 34 33 33 32 33 33 32 32 32 30 30 30 29 29 29 30 31
17 17 18 18 19 21 25 27 28 29 29 29 28 29 31 32 32 32 34 35 34 33 34 34 34 34 33 33 33 33 33 32 32 30 29 27 28 27 26 26 26 26 27 29
16 15 16 17 19 20 23 25 27 29 29 29 29 31 32 33 32 32 32 32 33 34 34 33 32 32 32 33 33 32 30 29 30 28 26 26 26 25 25 25 25 25 25 27
19 18 18 18 18 20 22 26 28 30 29 29 31 32 33 33 33 33 33 33 32 31 31 29 27 29 30 30 30 28 28 27 28 27 26 25 25 25 26 25 24 24 24 25
21 20 20 20 21 21 22 25 28 29 29 30 31 32 33 33 32 32 32 31 30 29 26 21 27 31 29 28 29 28 27 27 27 26 25 25 24 24 24 24 24 24 25 25
22 23 23 23 23 24 24 26 28 29 30 31 32 32 32 31 31 31 30 29 29 25 21 23 24 24 24 25 27 28 27 27 26 25 25 25 25 24 24 24 24 24 24 25
23 24 24 24 25 26 27 28 29 29 31 31 31 31 31 31 30 29 28 26 21 21 25 25 24 25 26 27 28 27 26 26 25 25 25 25 24 23 23 23 23 23 23 23
23 24 24 26 26 27 28 29 30 30 31 31 31 30 30 29 29 26 22 19 25 28 26 26 26 26 27 27 26 25 24 24 23 23 24 24 23 22 21 22 21 22 22 22
25 26 27 27 27 27 29 30 30 30 30 30 30 29 29 28 24 20 18 25 27 28 27 26 26 28 27 25 24 23 22 22 22 21 21 22 21 21 21 21 21 22 21 21
26 27 27 28 28 28 28 29 30 30 30 30 29 28 26 23 21 25 27 28 27 27 25 23 21 22 22 19 19 19 19 20 19 19 20 21 21 20 22 22 22 21 21 21
27 28 28 28 28 28 28 29 29 29 29 28 27 25 24 23 22 25 25 24 24 20 16 18 19 20 19 19 18 19 19 17 16 17 17 16 18 20 21 21 22 22 21 21
27 28 28 28 28 28 28 28 28 27 26 25 24 23 25 24 24 23 20 17 17 16 14 15 17 18 17 16 18 16 16 14 14 13 14 14 14 14 16 18 20 21 21 21
28 29 28 28 28 28 28 27 27 26 25 24 23 25 24 23 20 16 16 14 13 14 14 15 14 15 14 14 13 12 12 12 11 12 12 11 11 12 14 15 17 19 21 21

GFSNGP_sfc_30mbdewp_129.txt.gz
Dewpoint
17 17 20 21 20 19 17 20 16 15 20 22 27 31 33 34 35 36 36 36 37 37 37 37 38 38 39 40 42 44 46 48 50 51 52 53 53 53 53 54 55 56 57 57
17 20 21 21 21 21 19 20 22 22 22 25 27 33 33 34 35 35 36 36 36 37 37 37 37 38 38 39 39 40 41 43 44 47 48 48 49 49 49 49 50 51 52 52
-3 16 12 5 7 18 17 20 21 17 19 29 31 32 33 34 35 36 36 36 36 36 37 37 37 37 38 38 39 39 39 40 41 43 44 45 45 46 46 46 47 47 47 47
6 4 -24 -5 23 21 18 19 23 25 25 29 31 33 35 36 36 36 37 36 36 36 37 36 37 37 37 38 38 39 39 39 40 40 42 42 42 43 43 44 44 44 45 45
2 -0 -4 7 14 21 21 7 21 23 25 28 33 35 33 36 36 36 37 37 36 36 37 36 36 36 36 37 38 38 39 39 39 40 40 41 41 41 41 41 41 42 42 43
13 -10 -30 -9 21 29 24 -5 15 24 23 27 33 26 23 33 36 37 36 37 36 36 37 36 36 36 36 36 37 38 38 39 40 40 41 41 41 41 40 40 40 40 40 41
8 -0 -2 1 26 26 -4 -18 16 26 26 29 30 29 28 35 36 36 34 36 37 36 36 36 36 35 35 35 36 37 38 39 39 40 40 39 39 39 39 39 40 39 39 39
12 5 -15 14 29 12 -2 5 23 27 28 30 32 32 32 35 35 33 33 34 36 36 36 36 36 35 34 34 35 37 38 38 38 39 40 40 39 39 38 38 38 38 38 38
6 0 -1 24 13 24 17 15 26 27 29 30 31 32 32 33 33 33 31 32 34 35 35 35 35 35 34 34 34 36 36 37 37 38 38 39 39 39 39 39 39 39 39 39
11 6 11 11 20 27 27 24 25 29 29 31 30 31 32 33 32 31 29 29 29 32 34 34 35 35 35 34 34 34 35 35 36 36 37 37 37 38 37 38 37 37 36 37
15 14 15 15 16 15 18 26 28 29 31 31 32 31 32 32 31 29 29 29 29 30 33 34 34 35 34 33 34 34 34 34 35 35 35 35 35 37 36 37 38 37 37 38
8 10 9 9 10 14 15 16 20 25 29 31 32 32 32 32 31 29 29 29 29 30 32 34 34 35 34 34 34 35 35 35 34 34 34 34 34 34 35 37 37 37 38 38
12 13 12 12 12 13 14 16 18 23 27 28 31 33 32 31 30 29 28 29 29 30 33 35 35 35 34 34 35 35 34 34 34 35 34 34 34 33 32 32 33 34 34 33
16 15 14 15 13 15 19 20 25 25 27 29 30 31 31 30 29 29 30 31 31 35 35 35 35 34 34 35 35 35 34 34 34 34 33 32 32 31 30 29 28 28 29 29
18 18 17 17 17 16 19 22 24 25 26 28 30 30 29 29 28 30 32 32 34 35 36 36 35 36 36 35 34 33 33 33 33 33 31 31 29 28 27 26 26 26 27 27
19 19 19 18 18 19 21 23 22 22 26 28 29 29 29 29 29 31 33 34 34 34 34 34 34 34 34 33 33 33 33 33 32 31 29 26 26 25 25 25 25 25 25 26
19 18 17 17 18 18 19 21 23 23 26 28 29 29 30 30 30 31 32 33 34 33 34 34 33 33 33 33 33 32 31 29 29 30 27 25 25 25 24 24 25 24 24 25
21 21 20 19 18 17 18 20 22 24 26 28 29 29 30 30 30 31 32 32 33 33 32 32 32 30 30 31 30 29 28 27 26 27 27 26 25 25 25 25 24 24 24 24
22 22 21 20 20 20 20 20 22 25 28 29 30 30 30 31 32 32 32 33 32 31 31 29 25 27 29 28 28 28 27 26 26 26 26 26 25 24 25 25 24 24 24 24
22 22 22 22 22 22 22 23 24 26 28 30 30 31 31 32 32 32 32 31 31 30 27 21 24 26 25 25 27 28 28 27 26 26 25 25 25 25 25 24 24 24 24 24
22 23 23 24 24 24 25 25 26 27 29 30 31 31 31 32 32 31 30 30 29 28 22 26 25 24 25 27 27 27 26 25 25 24 24 24 23 23 23 23 21 21 22 22
23 23 23 24 25 25 26 27 28 28 29 30 31 31 31 31 31 30 29 29 26 25 26 26 25 27 26 28 26 25 24 23 23 22 21 21 21 21 22 21 21 21 21 21
24 25 25 25 26 26 27 28 28 29 29 30 30 30 30 30 29 28 28 23 26 29 27 26 26 27 28 24 23 22 22 21 20 20 20 20 21 21 21 21 21 20 21 21
25 26 26 27 28 27 26 27 28 29 29 30 29 29 28 26 24 25 25 25 27 29 26 25 24 23 23 19 18 18 18 18 17 15 17 18 16 17 18 19 20 21 21 21
25 26 27 27 27 27 27 27 28 29 29 29 28 27 26 26 25 25 27 28 28 24 20 21 21 21 18 18 17 18 17 15 14 15 13 13 13 13 13 14 15 17 18 21
25 26 26 27 27 27 27 27 28 28 27 26 25 24 24 24 25 25 24 23 20 17 15 17 18 18 17 16 15 14 13 11 11 12 13 12 11 11 11 11 13 14 16 17
27 28 27 27 27 28 27 28 27 27 27 26 24 24 23 23 23 20 19 17 15 15 15 15 16 15 14 13 12 10 10 10 11 12 11 9 9 9 10 10 11 13 13 13

GFSNGP_sfc_30mbdewp_135.txt.gz
Dewpoint
16 14 12 15 17 16 19 20 17 13 15 13 13 16 24 29 31 33 34 35 35 36 36 36 36 37 37 39 40 44 46 49 50 50 50 50 51 51 52 53 53 55 56 56
15 16 17 13 14 16 18 19 19 16 15 15 17 22 26 29 32 33 34 35 35 36 36 36 36 37 38 38 38 39 41 44 46 49 49 50 50 51 50 50 50 51 51 51
16 13 14 10 13 13 14 16 17 14 12 19 19 24 27 28 31 32 34 35 35 36 37 36 36 37 37 38 39 39 39 40 42 43 44 45 46 46 47 48 48 47 48 48
17 18 6 10 18 13 10 12 15 15 14 16 19 21 26 29 30 31 34 35 36 36 37 37 36 36 37 39 39 40 40 40 41 41 42 43 43 43 43 44 45 45 46 47
14 8 5 2 2 17 15 8 12 13 13 14 18 25 28 29 31 32 33 35 35 36 37 37 36 36 37 38 39 39 40 41 41 41 41 42 42 43 43 43 44 43 43 43
18 9 -2 -4 8 21 20 4 12 13 13 13 22 21 15 24 29 33 34 36 36 36 37 37 37 36 35 37 38 39 40 41 41 41 41 41 42 42 42 42 41 41 40 40
17 12 7 5 21 23 3 2 13 14 15 17 22 19 28 30 32 33 35 36 36 36 36 37 37 36 35 36 38 40 40 40 40 40 41 41 41 41 40 39 39 39 39 39
13 13 6 21 24 11 9 6 8 15 18 19 22 22 27 31 31 34 35 36 36 35 35 37 37 37 36 36 38 39 39 39 39 38 39 41 41 41 39 39 39 38 38 39
11 12 12 23 16 21 18 10 14 16 22 24 25 25 26 30 31 34 35 35 34 35 35 36 38 38 36 36 36 37 38 37 37 37 37 37 39 38 36 37 36 36 35 36
9 9 10 15 21 21 22 23 20 21 21 24 25 26 26 27 30 32 33 33 33 33 33 34 35 37 37 36 35 35 35 35 36 36 36 36 36 37 36 35 34 33 34 34
11 11 12 13 13 14 15 17 21 23 23 24 25 26 26 28 29 30 32 33 33 32 32 32 32 34 36 36 34 34 35 35 36 36 36 35 35 36 35 36 36 35 34 35
12 13 12 12 13 14 16 17 18 20 22 25 26 27 28 29 30 31 32 33 32 31 31 30 30 32 34 36 35 34 34 35 36 36 35 35 34 34 36 35 34 34 34 33
15 16 14 14 16 17 17 17 17 17 19 20 23 27 28 29 30 31 33 33 32 32 31 31 30 30 33 36 35 35 35 36 36 35 35 35 33 33 33 33 33 33 31 30
18 17 16 17 17 18 18 18 18 18 18 19 21 23 27 29 30 31 33 33 32 32 31 30 29 30 34 36 36 36 36 36 35 36 36 36 35 34 33 30 27 27 30 28
21 19 18 19 19 18 19 19 19 19 20 20 22 24 26 28 30 32 33 33 32 31 29 30 31 32 35 36 36 36 36 35 34 35 35 34 33 32 29 26 26 26 26 27
23 22 22 22 21 20 20 20 20 20 20 20 20 24 27 28 30 32 33 33 30 30 31 32 34 35 36 36 36 36 35 34 34 34 32 32 31 28 25 25 24 24 25 26
24 23 23 23 22 21 21 21 21 21 22 21 21 23 26 28 29 30 32 32 31 31 34 36 36 36 37 36 35 34 34 34 34 32 29 30 28 26 25 25 25 25 25 26
26 25 25 24 23 22 22 21 21 21 21 23 23 23 24 27 28 29 31 32 31 33 35 36 37 36 35 34 34 33 33 33 29 26 27 28 27 27 26 27 26 26 26 25
25 25 25 24 23 23 22 22 21 21 21 21 22 24 27 28 29 30 32 32 33 34 35 36 35 34 33 33 33 33 30 26 27 27 27 27 27 27 26 26 25 25 24 23
24 24 25 24 24 24 24 23 23 23 23 24 25 27 29 31 31 32 33 33 34 34 35 34 33 33 32 32 32 28 27 27 27 27 26 26 24 24 24 24 24 23 22 21
23 23 23 24 24 25 25 24 25 25 26 27 27 28 29 30 31 32 32 32 33 35 34 32 32 30 29 30 30 28 28 28 27 26 25 25 24 22 22 21 21 21 21 20
23 23 24 25 25 25 26 26 26 26 26 27 28 29 30 30 31 32 32 32 33 32 31 29 28 28 27 28 29 28 27 26 25 25 24 23 22 22 21 21 21 21 21 21
25 24 24 24 24 24 26 26 27 27 27 28 29 30 31 31 32 32 31 32 31 30 28 27 27 28 29 29 28 27 26 25 24 21 20 20 19 20 19 18 17 17 17 17
27 26 25 26 27 26 25 26 27 28 29 30 30 31 31 31 32 32 32 31 31 29 27 28 29 29 29 27 26 24 21 20 19 18 17 17 17 16 16 16 15 15 15 15
27 27 27 27 26 26 27 27 28 29 29 30 30 31 31 31 30 29 29 30 30 27 28 29 29 29 23 20 19 19 18 18 17 16 14 15 15 15 15 15 14 14 15 15
27 26 27 28 27 27 28 28 27 29 29 29 29 29 29 28 28 28 30 29 28 28 28 28 26 19 17 16 16 14 13 13 12 12 14 14 14 14 14 14 14 14 15 15
27 28 27 26 27 27 28 28 28 28 29 28 27 27 27 28 28 28 28 25 24 23 23 21 19 16 16 14 12 11 11 11 13 14 14 14 14 15 15 15 15 15 15 14

GFSNGP_sfc_30mbdewp_138.txt.gz
Dewpoint
20 19 16 15 15 17 17 18 16 15 16 17 16 14 17 28 30 32 33 35 35 36 36 36 37 37 38 39 39 41 45 47 49 50 50 51 51 51 51 52 53 54 53 52
13 16 16 16 14 15 17 19 19 19 19 21 20 22 21 27 29 32 33 34 35 36 36 36 36 37 38 39 39 40 40 41 46 47 47 49 49 50 50 50 50 50 49 48
11 17 18 6 13 15 15 18 19 17 18 17 18 21 24 26 29 32 32 34 35 36 37 36 36 37 38 39 41 40 40 41 41 44 45 45 45 45 47 48 49 49 48 46
14 18 7 13 14 16 14 15 17 18 18 16 17 20 21 27 28 30 32 34 36 36 37 37 37 37 38 39 40 41 41 41 41 42 43 43 43 43 44 44 44 45 46 44
16 14 10 10 11 10 8 -1 13 13 15 15 15 22 23 25 28 30 31 34 35 36 37 37 37 36 36 38 39 40 40 41 41 41 42 42 42 42 43 42 42 42 41 42
21 10 2 4 4 19 14 -3 12 14 14 14 21 15 19 26 28 30 32 35 36 36 37 37 37 36 36 37 39 40 40 41 41 41 41 41 41 41 41 41 40 40 39 39
18 16 15 14 16 22 -1 3 12 11 11 14 17 20 27 29 30 32 34 36 36 36 36 37 37 36 35 37 38 40 40 40 40 40 41 41 41 40 40 39 39 39 39 40
17 17 8 21 22 7 9 9 12 9 12 16 19 22 28 29 31 33 34 36 37 36 36 36 37 37 36 36 38 39 39 39 38 39 40 40 39 39 37 37 37 37 37 37
15 12 16 23 10 19 19 18 12 13 17 19 20 22 24 29 32 33 35 36 36 36 35 36 38 38 37 37 37 38 38 37 37 37 37 38 37 37 36 36 35 35 35 35
10 7 10 14 21 20 21 23 23 21 20 23 21 24 25 26 30 32 35 35 36 35 35 35 37 38 38 37 36 36 36 36 36 36 36 36 36 36 35 35 34 34 34 34
12 12 12 13 13 16 18 19 20 21 24 23 24 25 26 26 27 30 32 35 34 33 34 34 35 36 37 37 35 34 35 35 36 36 36 35 35 35 35 36 35 33 34 34
15 15 14 15 15 16 15 16 17 17 19 23 24 24 26 27 28 29 30 33 34 33 33 33 33 34 35 37 35 34 34 35 36 36 35 34 34 34 36 35 33 33 34 32
17 17 17 18 17 17 16 17 18 19 20 19 23 25 25 26 29 30 31 32 33 33 33 32 31 31 34 36 36 35 34 35 36 36 35 35 34 33 33 33 33 32 31 29
23 20 18 18 17 18 18 19 19 19 19 19 20 21 25 27 29 31 31 32 34 33 33 32 31 31 32 35 36 35 36 37 36 36 35 36 35 34 33 32 28 26 31 31
26 28 25 22 22 20 19 20 20 19 19 18 19 19 21 24 27 29 31 33 34 33 32 32 31 30 32 36 36 36 36 36 35 35 36 34 34 33 32 29 26 26 26 27
27 26 26 25 24 24 23 23 21 20 21 20 20 21 23 24 27 29 32 33 33 32 32 31 30 31 34 36 36 36 36 35 35 34 34 33 32 32 29 26 25 24 25 25
27 26 26 26 26 24 23 23 22 21 22 22 21 21 22 26 27 29 31 33 34 32 31 31 31 34 36 36 36 36 35 35 35 33 32 31 31 29 27 25 25 25 26 26
29 28 27 27 26 25 25 24 24 23 22 23 23 23 23 25 27 28 30 33 32 31 31 33 35 36 36 36 35 34 34 34 34 32 30 28 29 27 27 26 26 26 26 26
27 27 27 27 27 26 25 24 23 23 22 22 22 23 24 25 26 28 30 32 31 31 32 35 36 35 34 34 34 34 33 32 30 27 27 28 28 27 27 26 26 25 25 25
26 26 25 25 26 25 24 24 24 23 23 23 23 23 24 27 29 29 31 31 32 32 34 35 35 34 33 34 34 33 30 27 26 26 27 27 26 25 25 24 24 23 23 22
24 25 25 25 25 25 25 25 24 24 24 25 25 25 27 29 31 31 31 31 33 34 35 34 33 32 32 34 32 29 27 27 26 26 26 25 24 23 22 22 21 21 21 21
24 23 24 24 24 25 26 26 25 25 25 26 27 28 28 29 30 31 32 32 33 35 34 33 31 31 31 32 28 27 27 27 26 25 24 23 22 21 21 20 19 19 19 18
29 28 25 25 25 25 26 26 26 27 27 27 28 29 29 30 31 31 31 32 34 33 31 30 30 31 31 29 27 27 26 25 24 23 21 20 19 19 18 16 16 16 15 15
27 27 26 26 26 25 24 26 27 28 28 29 30 30 30 31 31 32 32 33 32 29 28 29 30 30 29 27 26 25 24 22 19 18 17 18 16 15 15 15 14 14 14 14
27 27 26 26 26 25 26 27 28 28 29 29 30 31 31 32 30 30 31 31 30 28 29 30 30 29 25 24 22 21 19 18 16 16 15 15 14 14 14 14 14 14 15 15
26 26 26 27 27 27 27 28 27 28 29 29 29 30 29 29 30 29 30 29 29 29 30 30 25 21 19 19 18 17 15 16 15 13 14 14 14 14 14 14 14 14 15 15
27 28 27 26 28 28 28 27 27 27 30 29 28 28 28 28 29 29 28 28 28 27 25 22 19 17 16 14 13 12 12 12 13 14 14 14 14 14 14 15 15 16 16 15

GFSNGP_sfc_30mbdewp_141.txt.gz
Dewpoint
21 21 21 20 18 16 18 17 11 6 16 17 17 16 16 17 27 30 31 33 35 36 36 36 36 37 38 40 40 40 42 47 47 48 49 49 50 50 51 52 51 51 51 51
16 16 17 14 15 15 16 18 18 17 16 18 18 20 20 24 29 29 32 33 35 36 36 36 36 37 38 39 40 41 41 41 46 46 46 47 47 49 49 49 49 48 47 47
4 17 18 11 11 17 16 17 16 15 15 18 18 20 20 22 24 28 31 33 35 35 36 36 36 37 37 39 41 41 41 41 42 43 44 43 46 46 47 47 48 46 45 45
13 17 2 9 16 13 12 12 18 17 18 19 18 18 19 22 25 27 31 33 35 36 37 37 36 36 37 39 40 40 41 41 42 42 42 43 42 42 42 44 45 44 43 42
13 14 10 11 15 12 9 -3 13 15 16 18 18 20 19 22 25 28 30 33 35 36 37 37 36 36 37 39 40 40 40 41 41 41 41 41 41 41 41 40 41 41 40 40
21 13 -2 5 3 16 13 -8 3 14 12 12 18 11 8 22 26 27 31 33 35 36 37 37 37 36 36 38 39 39 40 40 41 41 40 40 40 40 40 40 39 40 40 40
20 16 12 16 13 20 -7 -6 10 15 12 14 15 13 15 27 27 28 31 34 36 36 36 37 37 36 36 38 37 39 40 39 39 40 40 40 39 39 39 39 39 39 38 40
19 15 6 19 20 1 -2 6 11 12 12 14 15 16 22 27 26 31 32 35 36 36 36 36 37 37 36 37 38 39 39 38 38 39 39 39 37 37 37 36 36 36 36 37
15 12 17 21 10 14 18 14 12 11 12 16 17 17 20 25 29 30 32 35 37 36 36 36 37 37 36 36 38 39 38 38 37 37 37 37 36 36 35 35 35 35 35 35
12 12 16 17 20 21 20 19 19 21 21 19 18 19 20 23 26 31 32 33 36 36 36 35 36 38 37 37 37 37 37 37 36 36 36 36 36 35 35 34 34 34 34 33
12 12 13 15 14 14 14 17 21 22 22 22 22 22 23 23 25 27 31 34 36 36 36 35 36 37 37 37 36 35 36 36 36 36 36 35 35 35 35 35 34 33 33 33
18 22 19 22 21 19 17 17 17 17 18 20 22 22 23 24 25 26 28 32 35 35 35 35 35 36 37 37 36 35 35 35 36 36 35 35 35 35 36 35 34 35 35 32
21 22 21 22 21 22 21 19 19 19 19 18 20 22 23 23 24 25 28 30 33 34 34 34 34 34 35 36 35 35 34 35 36 36 35 34 33 33 32 34 33 33 31 30
23 23 22 22 20 24 23 21 20 21 20 20 20 21 22 23 25 27 28 29 31 33 34 33 33 33 34 36 36 35 35 35 35 36 35 35 34 33 33 32 29 26 31 32
26 25 23 24 24 25 28 29 27 23 21 20 21 20 20 21 22 24 27 30 32 33 33 33 32 32 33 35 36 35 35 35 35 35 35 35 34 33 32 31 28 26 26 26
28 28 28 27 28 28 28 28 27 25 23 21 21 20 20 20 20 22 25 30 31 32 33 33 32 32 32 35 35 35 35 36 35 34 35 34 33 32 31 29 26 25 24 25
28 28 28 28 29 28 28 27 27 26 25 23 22 22 21 22 22 24 26 30 32 33 33 33 33 32 32 34 35 35 36 36 35 33 33 32 32 31 30 27 25 25 25 27
29 29 30 29 29 29 28 28 27 26 25 24 24 23 23 22 23 24 26 29 32 33 33 33 32 32 33 35 35 35 35 35 35 33 32 31 31 30 27 26 26 26 26 26
28 28 29 29 29 28 28 28 28 26 25 24 23 23 24 24 25 26 29 30 31 31 32 32 33 33 34 35 35 34 34 35 34 32 31 30 29 27 26 26 26 25 25 25
27 28 27 26 26 26 26 27 25 24 24 23 23 23 23 24 26 27 28 29 31 32 32 32 34 34 34 35 35 34 33 32 31 29 28 27 27 26 26 25 24 23 22 22
27 25 25 24 25 25 26 25 25 24 24 25 24 24 24 26 28 29 29 28 31 33 32 34 34 33 34 35 34 32 31 29 28 27 27 26 26 23 23 21 21 21 21 20
26 27 30 32 27 26 26 26 25 25 25 25 26 27 27 28 29 30 31 30 31 34 34 33 33 33 34 34 31 30 29 27 26 25 25 24 23 21 20 20 18 17 16 15
27 28 30 30 31 29 27 27 27 26 26 26 27 27 28 29 30 29 29 32 33 34 33 32 32 34 34 29 29 28 26 25 25 24 22 21 20 19 18 16 15 15 14 14
27 27 26 27 27 27 26 26 27 27 28 29 29 30 30 30 31 32 32 33 34 32 31 32 33 34 29 27 27 26 25 24 22 21 20 19 17 15 14 14 13 14 14 15
27 27 27 27 25 25 27 28 28 28 28 29 30 31 31 31 30 31 31 32 31 30 31 33 33 30 27 26 25 23 22 20 18 17 16 15 14 13 14 14 14 15 15 14
27 27 27 26 27 28 27 29 27 27 28 29 29 30 30 30 30 30 30 29 29 30 31 31 26 25 23 22 21 20 18 18 17 15 14 14 13 13 14 14 14 15 15 14
27 28 27 27 28 28 28 28 27 27 30 28 27 28 28 29 30 29 29 29 29 27 25 25 25 22 20 18 16 16 16 15 15 14 14 14 13 14 14 15 15 15 15 15